Time,TemperatureF,DewpointF,PressureIn,WindDirection,WindDirectionDegrees,WindSpeedMPH,WindSpeedGustMPH,Humidity,HourlyPrecipIn,Conditions,Clouds,dailyrainin,SolarRadiationWatts/m^2,SoftwareType,DateUTC
2013-01-21 00:02:00,4.0,0.0,30.39,NW,304,8.0,9.0,83,0.00,,,0.00,0,Wunderground v.1.15,2013-01-21 06:02:00,
2013-01-21 00:03:00,3.9,-0.1,30.39,NW,313,6.0,9.0,83,0.00,,,0.00,0,Wunderground v.1.15,2013-01-21 06:03:00,
2013-01-21 00:06:00,3.7,-0.3,30.39,NW,318,5.0,9.0,83,0.00,,,0.00,0,Wunderground v.1.15,2013-01-21 06:06:00,
2013-01-21 00:07:00,3.7,-0.3,30.39,NW,319,5.0,9.0,83,0.00,,,0.00,0,Wunderground v.1.15,2013-01-21 06:07:00,
2013-01-21 00:11:00,3.2,-1.1,30.38,NW,316,6.0,6.0,82,0.00,,,0.00,0,Wunderground v.1.15,2013-01-21 06:11:00,
2013-01-21 00:14:00,2.9,-1.3,30.38,NW,316,5.0,6.0,82,0.00,,,0.00,0,Wunderground v.1.15,2013-01-21 06:14:00,
2013-01-21 00:15:00,2.8,-1.4,30.38,NW,314,5.0,6.0,82,0.00,,,0.00,0,Wunderground v.1.15,2013-01-21 06:15:00,
2013-01-21 00:18:00,2.6,-1.9,30.39,NW,311,5.0,6.0,81,0.00,,,0.00,0,Wunderground v.1.15,2013-01-21 06:18:00,
2013-01-21 00:20:00,2.3,-2.2,30.39,NW,311,6.0,6.0,81,0.00,,,0.00,0,Wunderground v.1.15,2013-01-21 06:20:00,
2013-01-21 00:21:00,2.3,-2.2,30.39,NW,311,5.0,6.0,81,0.00,,,0.00,0,Wunderground v.1.15,2013-01-21 06:21:00,
2013-01-21 00:24:00,2.0,-2.5,30.38,NW,309,7.0,7.0,81,0.00,,,0.00,0,Wunderground v.1.15,2013-01-21 06:24:00,
2013-01-21 00:27:00,1.9,-2.3,30.38,NW,309,7.0,7.0,82,0.00,,,0.00,0,Wunderground v.1.15,2013-01-21 06:27:00,
2013-01-21 00:28:00,1.9,-2.3,30.38,NW,304,7.0,7.0,82,0.00,,,0.00,0,Wunderground v.1.15,2013-01-21 06:28:00,
2013-01-21 00:33:00,2.0,-2.0,30.39,WNW,301,7.0,7.0,83,0.00,,,0.00,0,Wunderground v.1.15,2013-01-21 06:33:00,
2013-01-21 00:35:00,2.0,-2.0,30.39,WNW,297,7.0,7.0,83,0.00,,,0.00,0,Wunderground v.1.15,2013-01-21 06:35:00,
2013-01-21 00:36:00,2.1,-1.9,30.39,WNW,298,7.0,7.0,83,0.00,,,0.00,0,Wunderground v.1.15,2013-01-21 06:36:00,
2013-01-21 00:40:00,2.4,-1.3,30.39,WNW,297,8.0,8.0,84,0.00,,,0.00,0,Wunderground v.1.15,2013-01-21 06:40:00,
2013-01-21 00:41:00,2.5,-1.2,30.39,WNW,296,8.0,8.0,84,0.00,,,0.00,0,Wunderground v.1.15,2013-01-21 06:41:00,
2013-01-21 00:42:00,2.6,-1.1,30.39,WNW,294,7.0,8.0,84,0.00,,,0.00,0,Wunderground v.1.15,2013-01-21 06:42:00,
2013-01-21 00:45:00,2.8,-0.9,30.39,WNW,295,7.0,8.0,84,0.00,,,0.00,0,Wunderground v.1.15,2013-01-21 06:45:00,
2013-01-21 00:46:00,2.8,-0.9,30.39,WNW,292,6.0,8.0,84,0.00,,,0.00,0,Wunderground v.1.15,2013-01-21 06:46:00,
2013-01-21 00:50:00,2.7,-1.0,30.39,WNW,290,5.0,8.0,84,0.00,,,0.00,0,Wunderground v.1.15,2013-01-21 06:50:00,
2013-01-21 00:51:00,2.6,-1.1,30.39,WNW,291,6.0,7.0,84,0.00,,,0.00,0,Wunderground v.1.15,2013-01-21 06:51:00,
2013-01-21 00:52:00,2.6,-1.4,30.39,WNW,288,7.0,7.0,83,0.00,,,0.00,0,Wunderground v.1.15,2013-01-21 06:52:00,
2013-01-21 00:56:00,2.3,-1.7,30.39,WNW,285,6.0,7.0,83,0.00,,,0.00,0,Wunderground v.1.15,2013-01-21 06:56:00,
2013-01-21 00:59:00,2.0,-2.2,30.39,WNW,294,5.0,7.0,82,0.00,,,0.00,0,Wunderground v.1.15,2013-01-21 06:59:00,
2013-01-21 01:00:00,1.9,-2.3,30.39,WNW,293,6.0,6.0,82,0.00,,,0.00,0,Wunderground v.1.15,2013-01-21 07:00:00,
2013-01-21 01:03:00,1.5,-2.7,30.39,WNW,292,7.0,7.0,82,0.00,,,0.00,0,Wunderground v.1.15,2013-01-21 07:03:00,
2013-01-21 01:05:00,1.4,-2.8,30.39,WNW,290,7.0,7.0,82,0.00,,,0.00,0,Wunderground v.1.15,2013-01-21 07:05:00,
2013-01-21 01:09:00,1.1,-3.1,30.39,WNW,287,4.0,7.0,82,0.00,,,0.00,0,Wunderground v.1.15,2013-01-21 07:09:00,
2013-01-21 01:11:00,1.1,-3.1,30.39,WNW,286,6.0,6.0,82,0.00,,,0.00,0,Wunderground v.1.15,2013-01-21 07:11:00,
2013-01-21 01:12:00,1.1,-2.9,30.39,WNW,288,4.0,6.0,83,0.00,,,0.00,0,Wunderground v.1.15,2013-01-21 07:12:00,
2013-01-21 01:14:00,1.1,-2.9,30.39,WNW,286,4.0,6.0,83,0.00,,,0.00,0,Wunderground v.1.15,2013-01-21 07:14:00,
2013-01-21 01:15:00,1.1,-2.9,30.39,WNW,284,4.0,6.0,83,0.00,,,0.00,0,Wunderground v.1.15,2013-01-21 07:15:00,
2013-01-21 01:17:00,1.0,-3.0,30.39,West,278,6.0,7.0,83,0.00,,,0.00,0,Wunderground v.1.15,2013-01-21 07:17:00,
2013-01-21 01:18:00,0.9,-3.1,30.39,WNW,284,7.0,7.0,83,0.00,,,0.00,0,Wunderground v.1.15,2013-01-21 07:18:00,
2013-01-21 01:22:00,1.5,-2.2,30.39,WNW,289,7.0,8.0,84,0.00,,,0.00,0,Wunderground v.1.15,2013-01-21 07:22:00,
2013-01-21 01:25:00,2.2,-1.0,30.39,WNW,295,7.0,9.0,86,0.00,,,0.00,0,Wunderground v.1.15,2013-01-21 07:25:00,
2013-01-21 01:27:00,2.3,-1.2,30.39,WNW,294,7.0,9.0,85,0.00,,,0.00,0,Wunderground v.1.15,2013-01-21 07:27:00,
2013-01-21 01:29:00,2.3,-1.2,30.39,WNW,291,8.0,9.0,85,0.00,,,0.00,0,Wunderground v.1.15,2013-01-21 07:29:00,
2013-01-21 01:30:00,2.3,-1.2,30.39,WNW,294,6.0,8.0,85,0.00,,,0.00,0,Wunderground v.1.15,2013-01-21 07:30:00,
2013-01-21 01:31:00,2.2,-1.5,30.39,WNW,292,7.0,8.0,84,0.00,,,0.00,0,Wunderground v.1.15,2013-01-21 07:31:00,
2013-01-21 01:32:00,2.2,-1.5,30.39,WNW,293,7.0,8.0,84,0.00,,,0.00,0,Wunderground v.1.15,2013-01-21 07:32:00,
2013-01-21 01:37:00,2.0,-1.7,30.39,WNW,291,9.0,9.0,84,0.00,,,0.00,0,Wunderground v.1.15,2013-01-21 07:37:00,
2013-01-21 01:38:00,2.1,-1.6,30.39,WNW,296,9.0,9.0,84,0.00,,,0.00,0,Wunderground v.1.15,2013-01-21 07:38:00,
2013-01-21 01:39:00,2.1,-1.6,30.39,WNW,296,9.0,9.0,84,0.00,,,0.00,0,Wunderground v.1.15,2013-01-21 07:39:00,
2013-01-21 01:43:00,2.5,-1.0,30.39,WNW,299,10.0,10.0,85,0.00,,,0.00,0,Wunderground v.1.15,2013-01-21 07:43:00,
2013-01-21 01:44:00,2.6,-0.9,30.39,WNW,302,11.0,11.0,85,0.00,,,0.00,0,Wunderground v.1.15,2013-01-21 07:44:00,
2013-01-21 01:46:00,2.8,-0.9,30.39,NW,307,11.0,11.0,84,0.00,,,0.00,0,Wunderground v.1.15,2013-01-21 07:46:00,
2013-01-21 01:48:00,3.1,-0.4,30.39,NW,309,11.0,12.0,85,0.00,,,0.00,0,Wunderground v.1.15,2013-01-21 07:48:00,
2013-01-21 01:49:00,3.4,-0.1,30.39,WNW,303,12.0,12.0,85,0.00,,,0.00,0,Wunderground v.1.15,2013-01-21 07:49:00,
2013-01-21 01:50:00,3.7,0.2,30.39,NW,307,10.0,11.0,85,0.00,,,0.00,0,Wunderground v.1.15,2013-01-21 07:50:00,
2013-01-21 01:53:00,4.4,0.9,30.39,WNW,302,12.0,15.0,85,0.00,,,0.00,0,Wunderground v.1.15,2013-01-21 07:53:00,
2013-01-21 01:55:00,4.6,0.8,30.39,NW,310,14.0,15.0,84,0.00,,,0.00,0,Wunderground v.1.15,2013-01-21 07:55:00,
2013-01-21 01:56:00,4.8,1.0,30.39,NW,304,16.0,16.0,84,0.00,,,0.00,0,Wunderground v.1.15,2013-01-21 07:56:00,
2013-01-21 01:58:00,5.0,1.0,30.39,NW,304,13.0,16.0,83,0.00,,,0.00,0,Wunderground v.1.15,2013-01-21 07:58:00,
2013-01-21 01:59:00,5.1,1.1,30.39,NW,305,16.0,16.0,83,0.00,,,0.00,0,Wunderground v.1.15,2013-01-21 07:59:00,
2013-01-21 02:00:00,5.2,1.2,30.39,NW,312,14.0,14.0,83,0.00,,,0.00,0,Wunderground v.1.15,2013-01-21 08:00:00,
2013-01-21 02:02:00,5.3,1.3,30.39,NW,312,11.0,17.0,83,0.00,,,0.00,0,Wunderground v.1.15,2013-01-21 08:02:00,
2013-01-21 02:04:00,5.4,1.1,30.39,WNW,300,12.0,17.0,82,0.00,,,0.00,0,Wunderground v.1.15,2013-01-21 08:04:00,
2013-01-21 02:05:00,5.4,1.1,30.39,NW,313,14.0,17.0,82,0.00,,,0.00,0,Wunderground v.1.15,2013-01-21 08:05:00,
2013-01-21 02:08:00,5.4,1.1,30.39,NW,305,9.0,17.0,82,0.00,,,0.00,0,Wunderground v.1.15,2013-01-21 08:08:00,
2013-01-21 02:09:00,5.3,1.0,30.39,WNW,303,10.0,17.0,82,0.00,,,0.00,0,Wunderground v.1.15,2013-01-21 08:09:00,
2013-01-21 02:10:00,5.2,0.6,30.39,NW,310,13.0,13.0,81,0.00,,,0.00,0,Wunderground v.1.15,2013-01-21 08:10:00,
2013-01-21 02:12:00,5.1,0.5,30.39,WNW,300,10.0,13.0,81,0.00,,,0.00,0,Wunderground v.1.15,2013-01-21 08:12:00,
2013-01-21 02:14:00,5.1,0.5,30.39,WNW,303,13.0,13.0,81,0.00,,,0.00,0,Wunderground v.1.15,2013-01-21 08:14:00,
2013-01-21 02:16:00,5.1,0.5,30.39,WNW,302,15.0,15.0,81,0.00,,,0.00,0,Wunderground v.1.15,2013-01-21 08:16:00,
2013-01-21 02:18:00,5.1,0.5,30.39,NW,304,10.0,17.0,81,0.00,,,0.00,0,Wunderground v.1.15,2013-01-21 08:18:00,
2013-01-21 02:19:00,5.1,0.5,30.39,NW,304,17.0,17.0,81,0.00,,,0.00,0,Wunderground v.1.15,2013-01-21 08:19:00,
2013-01-21 02:20:00,5.1,0.5,30.39,WNW,302,14.0,16.0,81,0.00,,,0.00,0,Wunderground v.1.15,2013-01-21 08:20:00,
2013-01-21 02:21:00,5.2,0.6,30.39,WNW,300,13.0,16.0,81,0.00,,,0.00,0,Wunderground v.1.15,2013-01-21 08:21:00,
2013-01-21 02:23:00,5.2,0.6,30.39,NW,306,16.0,17.0,81,0.00,,,0.00,0,Wunderground v.1.15,2013-01-21 08:23:00,
2013-01-21 02:24:00,5.2,0.6,30.39,WNW,298,16.0,19.0,81,0.00,,,0.00,0,Wunderground v.1.15,2013-01-21 08:24:00,
2013-01-21 02:26:00,5.3,0.7,30.40,WNW,296,18.0,19.0,81,0.00,,,0.00,0,Wunderground v.1.15,2013-01-21 08:26:00,
2013-01-21 02:27:00,5.3,0.7,30.40,WNW,301,15.0,19.0,81,0.00,,,0.00,0,Wunderground v.1.15,2013-01-21 08:27:00,
2013-01-21 02:28:00,5.3,0.7,30.39,NW,312,15.0,19.0,81,0.00,,,0.00,0,Wunderground v.1.15,2013-01-21 08:28:00,
2013-01-21 02:31:00,5.1,0.5,30.40,WNW,301,14.0,16.0,81,0.00,,,0.00,0,Wunderground v.1.15,2013-01-21 08:31:00,
2013-01-21 02:32:00,5.1,0.5,30.40,WNW,300,15.0,16.0,81,0.00,,,0.00,0,Wunderground v.1.15,2013-01-21 08:32:00,
2013-01-21 02:33:00,5.0,0.4,30.40,NW,317,14.0,18.0,81,0.00,,,0.00,0,Wunderground v.1.15,2013-01-21 08:33:00,
2013-01-21 02:37:00,4.9,0.1,30.40,NW,304,14.0,18.0,80,0.00,,,0.00,0,Wunderground v.1.15,2013-01-21 08:37:00,
2013-01-21 02:38:00,4.8,0.0,30.40,WNW,302,14.0,18.0,80,0.00,,,0.00,0,Wunderground v.1.15,2013-01-21 08:38:00,
2013-01-21 02:39:00,4.7,-0.1,30.40,NW,304,12.0,18.0,80,0.00,,,0.00,0,Wunderground v.1.15,2013-01-21 08:39:00,
2013-01-21 02:40:00,4.7,-0.1,30.40,WNW,300,16.0,17.0,80,0.00,,,0.00,0,Wunderground v.1.15,2013-01-21 08:40:00,
2013-01-21 02:44:00,4.6,-0.2,30.40,WNW,303,13.0,17.0,80,0.00,,,0.00,0,Wunderground v.1.15,2013-01-21 08:44:00,
2013-01-21 02:45:00,4.5,-0.3,30.40,WNW,300,12.0,17.0,80,0.00,,,0.00,0,Wunderground v.1.15,2013-01-21 08:45:00,
2013-01-21 02:46:00,4.5,-0.3,30.40,WNW,299,12.0,17.0,80,0.00,,,0.00,0,Wunderground v.1.15,2013-01-21 08:46:00,
2013-01-21 02:49:00,4.3,-0.2,30.40,WNW,298,11.0,17.0,81,0.00,,,0.00,0,Wunderground v.1.15,2013-01-21 08:49:00,
2013-01-21 02:50:00,4.3,-0.2,30.40,WNW,295,10.0,17.0,81,0.00,,,0.00,0,Wunderground v.1.15,2013-01-21 08:50:00,
2013-01-21 02:51:00,4.2,-0.3,30.40,WNW,298,14.0,16.0,81,0.00,,,0.00,0,Wunderground v.1.15,2013-01-21 08:51:00,
2013-01-21 02:54:00,4.1,-0.4,30.40,WNW,297,13.0,16.0,81,0.00,,,0.00,0,Wunderground v.1.15,2013-01-21 08:54:00,
2013-01-21 02:56:00,4.1,-0.4,30.40,WNW,288,14.0,16.0,81,0.00,,,0.00,0,Wunderground v.1.15,2013-01-21 08:56:00,
2013-01-21 02:57:00,4.1,-0.4,30.40,WNW,293,13.0,16.0,81,0.00,,,0.00,0,Wunderground v.1.15,2013-01-21 08:57:00,
2013-01-21 02:59:00,4.1,-0.4,30.40,WNW,298,14.0,16.0,81,0.00,,,0.00,0,Wunderground v.1.15,2013-01-21 08:59:00,
2013-01-21 03:00:00,4.1,-0.4,30.40,WNW,299,14.0,14.0,81,0.00,,,0.00,0,Wunderground v.1.15,2013-01-21 09:00:00,
2013-01-21 03:02:00,4.1,-0.4,30.40,WNW,294,15.0,20.0,81,0.00,,,0.00,0,Wunderground v.1.15,2013-01-21 09:02:00,
2013-01-21 03:05:00,4.2,-0.3,30.40,WNW,298,18.0,20.0,81,0.00,,,0.00,0,Wunderground v.1.15,2013-01-21 09:05:00,
2013-01-21 03:07:00,4.2,-0.3,30.40,WNW,299,14.0,20.0,81,0.00,,,0.00,0,Wunderground v.1.15,2013-01-21 09:07:00,
2013-01-21 03:08:00,4.2,-0.6,30.41,WNW,299,19.0,20.0,80,0.00,,,0.00,0,Wunderground v.1.15,2013-01-21 09:08:00,
2013-01-21 03:10:00,4.3,-0.5,30.41,WNW,300,14.0,16.0,80,0.00,,,0.00,0,Wunderground v.1.15,2013-01-21 09:10:00,
2013-01-21 03:11:00,4.4,-0.4,30.41,WNW,300,17.0,17.0,80,0.00,,,0.00,0,Wunderground v.1.15,2013-01-21 09:11:00,
2013-01-21 03:13:00,4.4,-0.4,30.41,WNW,295,16.0,17.0,80,0.00,,,0.00,0,Wunderground v.1.15,2013-01-21 09:13:00,
2013-01-21 03:14:00,4.4,-0.4,30.41,WNW,294,15.0,17.0,80,0.00,,,0.00,0,Wunderground v.1.15,2013-01-21 09:14:00,
2013-01-21 03:16:00,4.4,-0.4,30.41,WNW,299,16.0,17.0,80,0.00,,,0.00,0,Wunderground v.1.15,2013-01-21 09:16:00,
2013-01-21 03:17:00,4.4,-0.4,30.41,WNW,294,16.0,17.0,80,0.00,,,0.00,0,Wunderground v.1.15,2013-01-21 09:17:00,
2013-01-21 03:18:00,4.5,-0.3,30.41,WNW,295,17.0,17.0,80,0.00,,,0.00,0,Wunderground v.1.15,2013-01-21 09:18:00,
2013-01-21 03:20:00,4.5,-0.3,30.40,WNW,292,17.0,17.0,80,0.00,,,0.00,0,Wunderground v.1.15,2013-01-21 09:20:00,
2013-01-21 03:23:00,4.5,-0.3,30.40,WNW,300,19.0,22.0,80,0.00,,,0.00,0,Wunderground v.1.15,2013-01-21 09:23:00,
2013-01-21 03:25:00,4.6,-0.2,30.40,WNW,300,12.0,22.0,80,0.00,,,0.00,0,Wunderground v.1.15,2013-01-21 09:25:00,
2013-01-21 03:26:00,4.6,-0.2,30.40,WNW,288,16.0,22.0,80,0.00,,,0.00,0,Wunderground v.1.15,2013-01-21 09:26:00,
2013-01-21 03:28:00,4.6,-0.2,30.40,WNW,298,22.0,22.0,80,0.00,,,0.00,0,Wunderground v.1.15,2013-01-21 09:28:00,
2013-01-21 03:29:00,4.6,-0.2,30.40,WNW,298,19.0,22.0,80,0.00,,,0.00,0,Wunderground v.1.15,2013-01-21 09:29:00,
2013-01-21 03:33:00,4.6,-0.2,30.40,WNW,299,16.0,18.0,80,0.00,,,0.00,0,Wunderground v.1.15,2013-01-21 09:33:00,
2013-01-21 03:34:00,4.6,-0.2,30.40,WNW,294,22.0,22.0,80,0.00,,,0.00,0,Wunderground v.1.15,2013-01-21 09:34:00,
2013-01-21 03:35:00,4.7,-0.1,30.40,WNW,302,17.0,25.0,80,0.00,,,0.00,0,Wunderground v.1.15,2013-01-21 09:35:00,
2013-01-21 03:39:00,4.7,-0.1,30.40,WNW,300,13.0,25.0,80,0.00,,,0.00,0,Wunderground v.1.15,2013-01-21 09:39:00,
2013-01-21 03:40:00,4.7,0.2,30.40,NW,306,18.0,18.0,81,0.00,,,0.00,0,Wunderground v.1.15,2013-01-21 09:40:00,
2013-01-21 03:44:00,4.8,0.0,30.40,WNW,293,17.0,20.0,80,0.00,,,0.00,0,Wunderground v.1.15,2013-01-21 09:44:00,
2013-01-21 03:45:00,4.8,0.0,30.40,WNW,303,15.0,20.0,80,0.00,,,0.00,0,Wunderground v.1.15,2013-01-21 09:45:00,
2013-01-21 03:48:00,4.8,0.0,30.40,WNW,300,15.0,21.0,80,0.00,,,0.00,0,Wunderground v.1.15,2013-01-21 09:48:00,
2013-01-21 03:50:00,4.8,0.0,30.39,NW,309,19.0,19.0,80,0.00,,,0.00,0,Wunderground v.1.15,2013-01-21 09:50:00,
2013-01-21 03:53:00,4.8,0.0,30.39,WNW,302,14.0,19.0,80,0.00,,,0.00,0,Wunderground v.1.15,2013-01-21 09:53:00,
2013-01-21 03:55:00,4.8,0.0,30.39,NW,306,21.0,22.0,80,0.00,,,0.00,0,Wunderground v.1.15,2013-01-21 09:55:00,
2013-01-21 03:56:00,4.8,0.0,30.39,WNW,294,17.0,22.0,80,0.00,,,0.00,0,Wunderground v.1.15,2013-01-21 09:56:00,
2013-01-21 03:57:00,4.7,-0.1,30.39,NW,306,21.0,22.0,80,0.00,,,0.00,0,Wunderground v.1.15,2013-01-21 09:57:00,
2013-01-21 03:59:00,4.7,-0.1,30.39,NW,308,19.0,22.0,80,0.00,,,0.00,0,Wunderground v.1.15,2013-01-21 09:59:00,
2013-01-21 04:01:00,4.7,-0.1,30.39,NW,309,19.0,19.0,80,0.00,,,0.00,0,Wunderground v.1.15,2013-01-21 10:01:00,
2013-01-21 04:03:00,4.7,-0.1,30.39,WNW,303,15.0,19.0,80,0.00,,,0.00,0,Wunderground v.1.15,2013-01-21 10:03:00,
2013-01-21 04:04:00,4.7,-0.1,30.39,WNW,295,16.0,20.0,80,0.00,,,0.00,0,Wunderground v.1.15,2013-01-21 10:04:00,
2013-01-21 04:07:00,4.7,-0.1,30.39,NW,305,17.0,24.0,80,0.00,,,0.00,0,Wunderground v.1.15,2013-01-21 10:07:00,
2013-01-21 04:08:00,4.7,-0.1,30.39,NW,319,21.0,24.0,80,0.00,,,0.00,0,Wunderground v.1.15,2013-01-21 10:08:00,
2013-01-21 04:10:00,4.7,-0.1,30.39,NW,306,18.0,18.0,80,0.00,,,0.00,0,Wunderground v.1.15,2013-01-21 10:10:00,
2013-01-21 04:12:00,4.6,-0.2,30.39,WNW,302,21.0,23.0,80,0.00,,,0.00,0,Wunderground v.1.15,2013-01-21 10:12:00,
2013-01-21 04:14:00,4.6,-0.2,30.39,NW,308,20.0,23.0,80,0.00,,,0.00,0,Wunderground v.1.15,2013-01-21 10:14:00,
2013-01-21 04:15:00,4.6,-0.2,30.40,WNW,302,16.0,23.0,80,0.00,,,0.00,0,Wunderground v.1.15,2013-01-21 10:15:00,
2013-01-21 04:16:00,4.6,-0.2,30.40,NW,313,18.0,23.0,80,0.00,,,0.00,0,Wunderground v.1.15,2013-01-21 10:16:00,
2013-01-21 04:18:00,4.6,-0.2,30.40,NW,315,19.0,23.0,80,0.00,,,0.00,0,Wunderground v.1.15,2013-01-21 10:18:00,
2013-01-21 04:19:00,4.6,-0.2,30.40,NW,304,17.0,23.0,80,0.00,,,0.00,0,Wunderground v.1.15,2013-01-21 10:19:00,
2013-01-21 04:21:00,4.6,-0.2,30.40,WNW,295,16.0,19.0,80,0.00,,,0.00,0,Wunderground v.1.15,2013-01-21 10:21:00,
2013-01-21 04:24:00,4.6,-0.2,30.40,NW,314,23.0,23.0,80,0.00,,,0.00,0,Wunderground v.1.15,2013-01-21 10:24:00,
2013-01-21 04:25:00,4.6,-0.5,30.40,NW,309,19.0,25.0,79,0.00,,,0.00,0,Wunderground v.1.15,2013-01-21 10:25:00,
2013-01-21 04:27:00,4.5,-0.6,30.40,NW,313,21.0,25.0,79,0.00,,,0.00,0,Wunderground v.1.15,2013-01-21 10:27:00,
2013-01-21 04:29:00,4.6,-0.2,30.40,WNW,302,21.0,25.0,80,0.00,,,0.00,0,Wunderground v.1.15,2013-01-21 10:29:00,
2013-01-21 04:31:00,4.6,-0.2,30.40,NW,305,18.0,24.0,80,0.00,,,0.00,0,Wunderground v.1.15,2013-01-21 10:31:00,
2013-01-21 04:32:00,4.6,-0.2,30.40,West,281,20.0,24.0,80,0.00,,,0.00,0,Wunderground v.1.15,2013-01-21 10:32:00,
2013-01-21 04:33:00,4.6,-0.2,30.40,NW,306,18.0,24.0,80,0.00,,,0.00,0,Wunderground v.1.15,2013-01-21 10:33:00,
2013-01-21 04:37:00,4.6,-0.5,30.40,WNW,303,19.0,24.0,79,0.00,,,0.00,0,Wunderground v.1.15,2013-01-21 10:37:00,
2013-01-21 04:38:00,4.6,-0.5,30.40,WNW,297,18.0,24.0,79,0.00,,,0.00,0,Wunderground v.1.15,2013-01-21 10:38:00,
2013-01-21 04:39:00,4.6,-0.5,30.40,NW,304,20.0,24.0,79,0.00,,,0.00,0,Wunderground v.1.15,2013-01-21 10:39:00,
2013-01-21 04:43:00,4.5,-0.6,30.40,NW,306,19.0,22.0,79,0.00,,,0.00,0,Wunderground v.1.15,2013-01-21 10:43:00,
2013-01-21 04:45:00,4.5,-0.6,30.40,NW,309,23.0,24.0,79,0.00,,,0.00,0,Wunderground v.1.15,2013-01-21 10:45:00,
2013-01-21 04:46:00,4.4,-0.7,30.40,NW,305,18.0,24.0,79,0.00,,,0.00,0,Wunderground v.1.15,2013-01-21 10:46:00,
2013-01-21 04:48:00,4.3,-0.5,30.40,NW,306,20.0,24.0,80,0.00,,,0.00,0,Wunderground v.1.15,2013-01-21 10:48:00,
2013-01-21 04:49:00,4.3,-0.5,30.40,NW,305,17.0,24.0,80,0.00,,,0.00,0,Wunderground v.1.15,2013-01-21 10:49:00,
2013-01-21 04:50:00,4.2,-0.6,30.40,NW,309,17.0,19.0,80,0.00,,,0.00,0,Wunderground v.1.15,2013-01-21 10:50:00,
2013-01-21 04:51:00,4.2,-0.6,30.40,NW,314,20.0,20.0,80,0.00,,,0.00,0,Wunderground v.1.15,2013-01-21 10:51:00,
2013-01-21 04:54:00,4.2,-0.6,30.40,NW,304,21.0,21.0,80,0.00,,,0.00,0,Wunderground v.1.15,2013-01-21 10:54:00,
2013-01-21 04:55:00,4.2,-0.6,30.40,WNW,302,19.0,21.0,80,0.00,,,0.00,0,Wunderground v.1.15,2013-01-21 10:55:00,
2013-01-21 04:58:00,4.2,-0.3,30.40,NW,304,18.0,22.0,81,0.00,,,0.00,0,Wunderground v.1.15,2013-01-21 10:58:00,
2013-01-21 04:59:00,4.2,-0.3,30.40,NW,304,22.0,23.0,81,0.00,,,0.00,0,Wunderground v.1.15,2013-01-21 10:59:00,
2013-01-21 05:00:00,4.2,-0.3,30.40,WNW,301,22.0,25.0,81,0.00,,,0.00,0,Wunderground v.1.15,2013-01-21 11:00:00,
2013-01-21 05:01:00,4.2,-0.3,30.40,WNW,300,21.0,25.0,81,0.00,,,0.00,0,Wunderground v.1.15,2013-01-21 11:01:00,
2013-01-21 05:03:00,4.2,-0.3,30.40,WNW,296,21.0,25.0,81,0.00,,,0.00,0,Wunderground v.1.15,2013-01-21 11:03:00,
2013-01-21 05:06:00,4.2,-0.3,30.40,NW,306,17.0,25.0,81,0.00,,,0.00,0,Wunderground v.1.15,2013-01-21 11:06:00,
2013-01-21 05:07:00,4.2,-0.3,30.40,NW,319,22.0,25.0,81,0.00,,,0.00,0,Wunderground v.1.15,2013-01-21 11:07:00,
2013-01-21 05:08:00,4.2,-0.3,30.40,NW,306,19.0,25.0,81,0.00,,,0.00,0,Wunderground v.1.15,2013-01-21 11:08:00,
2013-01-21 05:11:00,4.2,-0.3,30.40,WNW,302,17.0,20.0,81,0.00,,,0.00,0,Wunderground v.1.15,2013-01-21 11:11:00,
2013-01-21 05:14:00,4.2,-0.1,30.40,NW,323,21.0,23.0,82,0.00,,,0.00,0,Wunderground v.1.15,2013-01-21 11:14:00,
2013-01-21 05:17:00,4.1,-0.4,30.40,NW,306,19.0,25.0,81,0.00,,,0.00,0,Wunderground v.1.15,2013-01-21 11:17:00,
2013-01-21 05:18:00,4.1,-0.7,30.40,NW,307,19.0,25.0,80,0.00,,,0.00,0,Wunderground v.1.15,2013-01-21 11:18:00,
2013-01-21 05:20:00,4.1,-0.7,30.40,WNW,301,18.0,19.0,80,0.00,,,0.00,0,Wunderground v.1.15,2013-01-21 11:20:00,
2013-01-21 05:22:00,4.0,-0.5,30.40,NW,307,22.0,22.0,81,0.00,,,0.00,0,Wunderground v.1.15,2013-01-21 11:22:00,
2013-01-21 05:25:00,4.0,-0.5,30.40,WNW,290,19.0,22.0,81,0.00,,,0.00,0,Wunderground v.1.15,2013-01-21 11:25:00,
2013-01-21 05:26:00,4.0,-0.5,30.40,NW,311,18.0,22.0,81,0.00,,,0.00,0,Wunderground v.1.15,2013-01-21 11:26:00,
2013-01-21 05:27:00,4.0,-0.5,30.40,NW,310,20.0,22.0,81,0.00,,,0.00,0,Wunderground v.1.15,2013-01-21 11:27:00,
2013-01-21 05:30:00,3.9,-0.6,30.41,NW,321,20.0,20.0,81,0.00,,,0.00,0,Wunderground v.1.15,2013-01-21 11:30:00,
2013-01-21 05:33:00,3.8,-0.7,30.40,WNW,303,20.0,23.0,81,0.00,,,0.00,0,Wunderground v.1.15,2013-01-21 11:33:00,
2013-01-21 05:35:00,3.7,-1.1,30.41,NW,308,13.0,23.0,80,0.00,,,0.00,0,Wunderground v.1.15,2013-01-21 11:35:00,
2013-01-21 05:37:00,3.7,-0.8,30.41,NW,309,18.0,23.0,81,0.00,,,0.00,0,Wunderground v.1.15,2013-01-21 11:37:00,
2013-01-21 05:38:00,3.7,-0.8,30.41,WNW,302,21.0,23.0,81,0.00,,,0.00,0,Wunderground v.1.15,2013-01-21 11:38:00,
2013-01-21 05:42:00,3.6,-0.9,30.41,NW,315,17.0,19.0,81,0.00,,,0.00,0,Wunderground v.1.15,2013-01-21 11:42:00,
2013-01-21 05:43:00,3.5,-1.0,30.41,NW,321,14.0,19.0,81,0.00,,,0.00,0,Wunderground v.1.15,2013-01-21 11:43:00,
2013-01-21 05:45:00,3.3,-1.2,30.41,NW,315,15.0,19.0,81,0.00,,,0.00,0,Wunderground v.1.15,2013-01-21 11:45:00,
2013-01-21 05:48:00,3.0,-1.8,30.41,NW,323,18.0,19.0,80,0.00,,,0.00,0,Wunderground v.1.15,2013-01-21 11:48:00,
2013-01-21 05:51:00,2.7,-2.3,30.41,NW,320,13.0,15.0,79,0.00,,,0.00,0,Wunderground v.1.15,2013-01-21 11:51:00,
2013-01-21 05:53:00,2.4,-2.9,30.42,NW,307,15.0,17.0,78,0.00,,,0.00,0,Wunderground v.1.15,2013-01-21 11:53:00,
2013-01-21 05:55:00,2.4,-2.9,30.42,NW,310,13.0,17.0,78,0.00,,,0.00,0,Wunderground v.1.15,2013-01-21 11:55:00,
2013-01-21 05:58:00,2.2,-3.4,30.42,NW,316,13.0,17.0,77,0.00,,,0.00,0,Wunderground v.1.15,2013-01-21 11:58:00,
2013-01-21 05:59:00,2.2,-3.4,30.42,NW,321,16.0,17.0,77,0.00,,,0.00,0,Wunderground v.1.15,2013-01-21 11:59:00,
2013-01-21 06:00:00,2.1,-3.5,30.42,NW,321,18.0,18.0,77,0.00,,,0.00,0,Wunderground v.1.15,2013-01-21 12:00:00,
2013-01-21 06:04:00,2.0,-3.6,30.42,NW,319,14.0,18.0,77,0.00,,,0.00,0,Wunderground v.1.15,2013-01-21 12:04:00,
2013-01-21 06:05:00,1.9,-3.9,30.42,NW,311,15.0,19.0,76,0.00,,,0.00,0,Wunderground v.1.15,2013-01-21 12:05:00,
2013-01-21 06:08:00,1.8,-4.3,30.42,NW,308,14.0,19.0,75,0.00,,,0.00,0,Wunderground v.1.15,2013-01-21 12:08:00,
2013-01-21 06:10:00,1.8,-4.3,30.42,NW,312,12.0,15.0,75,0.00,,,0.00,0,Wunderground v.1.15,2013-01-21 12:10:00,
2013-01-21 06:11:00,1.8,-4.3,30.42,NW,319,13.0,15.0,75,0.00,,,0.00,0,Wunderground v.1.15,2013-01-21 12:11:00,
2013-01-21 06:14:00,1.7,-4.4,30.42,NW,317,14.0,17.0,75,0.00,,,0.00,0,Wunderground v.1.15,2013-01-21 12:14:00,
2013-01-21 06:16:00,1.6,-4.8,30.42,NW,315,17.0,19.0,74,0.00,,,0.00,0,Wunderground v.1.15,2013-01-21 12:16:00,
2013-01-21 06:17:00,1.5,-4.9,30.43,NW,309,20.0,20.0,74,0.00,,,0.00,0,Wunderground v.1.15,2013-01-21 12:17:00,
2013-01-21 06:21:00,1.4,-5.0,30.43,NW,319,14.0,16.0,74,0.00,,,0.00,0,Wunderground v.1.15,2013-01-21 12:21:00,
2013-01-21 06:23:00,1.4,-5.0,30.43,NW,306,14.0,16.0,74,0.00,,,0.00,0,Wunderground v.1.15,2013-01-21 12:23:00,
2013-01-21 06:26:00,1.3,-5.1,30.43,NW,313,14.0,16.0,74,0.00,,,0.00,0,Wunderground v.1.15,2013-01-21 12:26:00,
2013-01-21 06:28:00,1.2,-5.2,30.43,NW,311,14.0,16.0,74,0.00,,,0.00,0,Wunderground v.1.15,2013-01-21 12:28:00,
2013-01-21 06:30:00,1.1,-5.3,30.43,WNW,303,12.0,13.0,74,0.00,,,0.00,0,Wunderground v.1.15,2013-01-21 12:30:00,
2013-01-21 06:32:00,1.1,-5.3,30.43,NW,311,16.0,18.0,74,0.00,,,0.00,0,Wunderground v.1.15,2013-01-21 12:32:00,
2013-01-21 06:33:00,1.1,-5.3,30.43,NW,311,16.0,18.0,74,0.00,,,0.00,0,Wunderground v.1.15,2013-01-21 12:33:00,
2013-01-21 06:35:00,1.1,-5.3,30.43,NW,309,19.0,19.0,74,0.00,,,0.00,0,Wunderground v.1.15,2013-01-21 12:35:00,
2013-01-21 06:37:00,1.0,-5.4,30.43,WNW,303,20.0,20.0,74,0.00,,,0.00,0,Wunderground v.1.15,2013-01-21 12:37:00,
2013-01-21 06:38:00,1.0,-5.4,30.43,NW,304,17.0,20.0,74,0.00,,,0.00,0,Wunderground v.1.15,2013-01-21 12:38:00,
2013-01-21 06:39:00,1.0,-5.4,30.43,WNW,303,16.0,20.0,74,0.00,,,0.00,0,Wunderground v.1.15,2013-01-21 12:39:00,
2013-01-21 06:40:00,0.9,-5.5,30.44,NW,307,13.0,16.0,74,0.00,,,0.00,0,Wunderground v.1.15,2013-01-21 12:40:00,
2013-01-21 06:44:00,0.8,-5.3,30.43,NW,317,17.0,18.0,75,0.00,,,0.00,0,Wunderground v.1.15,2013-01-21 12:44:00,
2013-01-21 06:46:00,0.7,-5.1,30.43,NW,320,18.0,22.0,76,0.00,,,0.00,0,Wunderground v.1.15,2013-01-21 12:46:00,
2013-01-21 06:47:00,0.5,-5.3,30.43,NW,320,19.0,24.0,76,0.00,,,0.00,0,Wunderground v.1.15,2013-01-21 12:47:00,
2013-01-21 06:50:00,0.3,-5.5,30.44,NW,309,17.0,17.0,76,0.00,,,0.00,0,Wunderground v.1.15,2013-01-21 12:50:00,
2013-01-21 06:51:00,0.2,-5.6,30.44,NW,304,18.0,21.0,76,0.00,,,0.00,0,Wunderground v.1.15,2013-01-21 12:51:00,
2013-01-21 06:53:00,0.1,-5.4,30.44,NW,316,22.0,22.0,77,0.00,,,0.00,0,Wunderground v.1.15,2013-01-21 12:53:00,
2013-01-21 06:54:00,0.0,-5.5,30.44,NW,309,15.0,22.0,77,0.00,,,0.00,0,Wunderground v.1.15,2013-01-21 12:54:00,
2013-01-21 06:57:00,-0.2,-5.7,30.44,NW,313,21.0,23.0,77,0.00,,,0.00,0,Wunderground v.1.15,2013-01-21 12:57:00,
2013-01-21 06:58:00,-0.4,-5.9,30.44,NW,312,17.0,23.0,77,0.00,,,0.00,0,Wunderground v.1.15,2013-01-21 12:58:00,
2013-01-21 07:00:00,-0.6,-6.4,30.44,NW,305,22.0,23.0,76,0.00,,,0.00,0,Wunderground v.1.15,2013-01-21 13:00:00,
2013-01-21 07:03:00,-0.9,-6.6,30.44,NW,313,15.0,23.0,76,0.00,,,0.00,0,Wunderground v.1.15,2013-01-21 13:03:00,
2013-01-21 07:04:00,-1.0,-6.7,30.44,WNW,296,19.0,23.0,76,0.00,,,0.00,0,Wunderground v.1.15,2013-01-21 13:04:00,
2013-01-21 07:05:00,-1.0,-6.7,30.44,NW,311,16.0,23.0,76,0.00,,,0.00,0,Wunderground v.1.15,2013-01-21 13:05:00,
2013-01-21 07:09:00,-1.2,-6.9,30.44,NW,314,15.0,23.0,76,0.00,,,0.00,0,Wunderground v.1.15,2013-01-21 13:09:00,
2013-01-21 07:10:00,-1.2,-6.9,30.44,NW,323,14.0,17.0,76,0.00,,,0.00,0,Wunderground v.1.15,2013-01-21 13:10:00,
2013-01-21 07:11:00,-1.3,-7.0,30.44,NW,321,14.0,17.0,76,0.00,,,0.00,0,Wunderground v.1.15,2013-01-21 13:11:00,
2013-01-21 07:14:00,-1.5,-7.5,30.44,NW,309,16.0,19.0,75,0.00,,,0.00,0,Wunderground v.1.15,2013-01-21 13:14:00,
2013-01-21 07:16:00,-1.6,-7.9,30.44,NW,311,18.0,22.0,74,0.00,,,0.00,0,Wunderground v.1.15,2013-01-21 13:16:00,
2013-01-21 07:17:00,-1.7,-8.0,30.44,NW,310,19.0,22.0,74,0.00,,,0.00,0,Wunderground v.1.15,2013-01-21 13:17:00,
2013-01-21 07:20:00,-1.8,-8.1,30.45,NW,309,15.0,17.0,74,0.00,,,0.00,0,Wunderground v.1.15,2013-01-21 13:20:00,
2013-01-21 07:21:00,-1.9,-8.2,30.45,NW,316,13.0,17.0,74,0.00,,,0.00,0,Wunderground v.1.15,2013-01-21 13:21:00,
2013-01-21 07:22:00,-1.9,-8.2,30.45,NW,311,13.0,17.0,74,0.00,,,0.00,0,Wunderground v.1.15,2013-01-21 13:22:00,
2013-01-21 07:24:00,-1.9,-8.2,30.45,NW,315,13.0,17.0,74,0.00,,,0.00,0,Wunderground v.1.15,2013-01-21 13:24:00,
2013-01-21 07:27:00,-2.0,-8.3,30.45,NW,311,15.0,18.0,74,0.00,,,0.00,0,Wunderground v.1.15,2013-01-21 13:27:00,
2013-01-21 07:29:00,-2.1,-8.4,30.45,NW,313,17.0,18.0,74,0.00,,,0.00,0,Wunderground v.1.15,2013-01-21 13:29:00,
2013-01-21 07:31:00,-2.2,-8.7,30.45,WNW,303,14.0,18.0,73,0.00,,,0.00,0,Wunderground v.1.15,2013-01-21 13:31:00,
2013-01-21 07:33:00,-2.2,-8.7,30.45,NW,311,13.0,18.0,73,0.00,,,0.00,5,Wunderground v.1.15,2013-01-21 13:33:00,
2013-01-21 07:34:00,-2.2,-8.7,30.45,NW,305,12.0,18.0,73,0.00,,,0.00,5,Wunderground v.1.15,2013-01-21 13:34:00,
2013-01-21 07:38:00,-2.3,-8.6,30.44,NW,311,15.0,18.0,74,0.00,,,0.00,7,Wunderground v.1.15,2013-01-21 13:38:00,
2013-01-21 07:40:00,-2.3,-8.8,30.45,NW,323,17.0,19.0,73,0.00,,,0.00,9,Wunderground v.1.15,2013-01-21 13:40:00,
2013-01-21 07:42:00,-2.3,-8.8,30.44,NNW,331,11.0,19.0,73,0.00,,,0.00,12,Wunderground v.1.15,2013-01-21 13:42:00,
2013-01-21 07:43:00,-2.3,-8.8,30.44,NW,318,15.0,19.0,73,0.00,,,0.00,12,Wunderground v.1.15,2013-01-21 13:43:00,
2013-01-21 07:44:00,-2.3,-8.8,30.45,NW,312,13.0,19.0,73,0.00,,,0.00,14,Wunderground v.1.15,2013-01-21 13:44:00,
2013-01-21 07:45:00,-2.3,-8.6,30.45,NW,326,16.0,19.0,74,0.00,,,0.00,18,Wunderground v.1.15,2013-01-21 13:45:00,
2013-01-21 07:48:00,-2.2,-8.7,30.45,NW,323,11.0,19.0,73,0.00,,,0.00,19,Wunderground v.1.15,2013-01-21 13:48:00,
2013-01-21 07:49:00,-2.2,-8.5,30.45,NW,317,15.0,19.0,74,0.00,,,0.00,19,Wunderground v.1.15,2013-01-21 13:49:00,
2013-01-21 07:50:00,-2.2,-8.5,30.45,NW,318,15.0,19.0,74,0.00,,,0.00,19,Wunderground v.1.15,2013-01-21 13:50:00,
2013-01-21 07:53:00,-2.2,-8.5,30.45,NW,306,17.0,17.0,74,0.00,,,0.00,21,Wunderground v.1.15,2013-01-21 13:53:00,
2013-01-21 07:54:00,-2.1,-8.6,30.45,NW,326,7.0,17.0,73,0.00,,,0.00,23,Wunderground v.1.15,2013-01-21 13:54:00,
2013-01-21 07:55:00,-2.1,-8.6,30.45,NW,317,9.0,17.0,73,0.00,,,0.00,25,Wunderground v.1.15,2013-01-21 13:55:00,
2013-01-21 07:59:00,-2.0,-8.5,30.45,NW,313,12.0,17.0,73,0.00,,,0.00,28,Wunderground v.1.15,2013-01-21 13:59:00,
2013-01-21 08:00:00,-2.0,-8.5,30.45,NW,319,13.0,14.0,73,0.00,,,0.00,28,Wunderground v.1.15,2013-01-21 14:00:00,
2013-01-21 08:01:00,-2.0,-8.5,30.45,NW,311,11.0,17.0,73,0.00,,,0.00,30,Wunderground v.1.15,2013-01-21 14:01:00,
2013-01-21 08:05:00,-2.0,-8.5,30.45,NW,307,14.0,17.0,73,0.00,,,0.00,35,Wunderground v.1.15,2013-01-21 14:05:00,
2013-01-21 08:06:00,-2.0,-8.8,30.45,NW,307,13.0,17.0,72,0.00,,,0.00,39,Wunderground v.1.15,2013-01-21 14:06:00,
2013-01-21 08:07:00,-2.0,-8.8,30.45,WNW,294,18.0,18.0,72,0.00,,,0.00,44,Wunderground v.1.15,2013-01-21 14:07:00,
2013-01-21 08:08:00,-2.0,-8.8,30.46,WNW,294,15.0,18.0,72,0.00,,,0.00,44,Wunderground v.1.15,2013-01-21 14:08:00,
2013-01-21 08:11:00,-1.9,-8.4,30.46,NW,310,12.0,16.0,73,0.00,,,0.00,47,Wunderground v.1.15,2013-01-21 14:11:00,
2013-01-21 08:13:00,-1.9,-8.4,30.46,WNW,301,13.0,16.0,73,0.00,,,0.00,47,Wunderground v.1.15,2013-01-21 14:13:00,
2013-01-21 08:17:00,-1.9,-8.7,30.46,NW,323,12.0,16.0,72,0.00,,,0.00,58,Wunderground v.1.15,2013-01-21 14:17:00,
2013-01-21 08:19:00,-1.8,-8.6,30.46,NW,316,10.0,16.0,72,0.00,,,0.00,54,Wunderground v.1.15,2013-01-21 14:19:00,
2013-01-21 08:20:00,-1.8,-8.3,30.47,NW,308,9.0,13.0,73,0.00,,,0.00,58,Wunderground v.1.15,2013-01-21 14:20:00,
2013-01-21 08:22:00,-1.8,-8.3,30.47,WNW,302,13.0,15.0,73,0.00,,,0.00,69,Wunderground v.1.15,2013-01-21 14:22:00,
2013-01-21 08:24:00,-1.7,-8.3,30.47,NW,313,14.0,15.0,73,0.00,,,0.00,76,Wunderground v.1.15,2013-01-21 14:24:00,
2013-01-21 08:26:00,-1.7,-8.3,30.47,NW,304,11.0,15.0,73,0.00,,,0.00,90,Wunderground v.1.15,2013-01-21 14:26:00,
2013-01-21 08:27:00,-1.6,-8.2,30.47,NW,304,14.0,15.0,73,0.00,,,0.00,111,Wunderground v.1.15,2013-01-21 14:27:00,
2013-01-21 08:29:00,-1.5,-8.1,30.47,NW,304,11.0,15.0,73,0.00,,,0.00,120,Wunderground v.1.15,2013-01-21 14:29:00,
2013-01-21 08:32:00,-1.3,-7.9,30.46,NW,313,13.0,16.0,73,0.00,,,0.00,121,Wunderground v.1.15,2013-01-21 14:32:00,
2013-01-21 08:34:00,-1.2,-7.8,30.47,WNW,290,15.0,16.0,73,0.00,,,0.00,114,Wunderground v.1.15,2013-01-21 14:34:00,
2013-01-21 08:35:00,-1.2,-7.8,30.46,NW,307,13.0,16.0,73,0.00,,,0.00,114,Wunderground v.1.15,2013-01-21 14:35:00,
2013-01-21 08:38:00,-1.2,-7.8,30.46,NW,317,12.0,19.0,73,0.00,,,0.00,121,Wunderground v.1.15,2013-01-21 14:38:00,
2013-01-21 08:39:00,-1.2,-7.8,30.46,NW,319,12.0,19.0,73,0.00,,,0.00,120,Wunderground v.1.15,2013-01-21 14:39:00,
2013-01-21 08:41:00,-1.1,-7.7,30.46,WNW,303,12.0,15.0,73,0.00,,,0.00,118,Wunderground v.1.15,2013-01-21 14:41:00,
2013-01-21 08:45:00,-1.0,-7.6,30.47,WNW,301,15.0,15.0,73,0.00,,,0.00,127,Wunderground v.1.15,2013-01-21 14:45:00,
2013-01-21 08:46:00,-1.0,-7.6,30.46,NW,311,11.0,16.0,73,0.00,,,0.00,127,Wunderground v.1.15,2013-01-21 14:46:00,
2013-01-21 08:48:00,-1.0,-7.6,30.47,NW,319,16.0,16.0,73,0.00,,,0.00,142,Wunderground v.1.15,2013-01-21 14:48:00,
2013-01-21 08:51:00,-0.9,-7.5,30.47,NW,304,12.0,17.0,73,0.00,,,0.00,163,Wunderground v.1.15,2013-01-21 14:51:00,
2013-01-21 08:53:00,-0.9,-7.5,30.47,NW,311,13.0,17.0,73,0.00,,,0.00,167,Wunderground v.1.15,2013-01-21 14:53:00,
2013-01-21 08:54:00,-0.8,-7.4,30.47,NW,321,11.0,17.0,73,0.00,,,0.00,167,Wunderground v.1.15,2013-01-21 14:54:00,
2013-01-21 08:57:00,-0.6,-7.2,30.47,NW,312,18.0,18.0,73,0.00,,,0.00,181,Wunderground v.1.15,2013-01-21 14:57:00,
2013-01-21 08:58:00,-0.5,-6.8,30.47,NW,306,14.0,18.0,74,0.00,,,0.00,200,Wunderground v.1.15,2013-01-21 14:58:00,
2013-01-21 08:59:00,-0.5,-6.8,30.47,NW,304,15.0,18.0,74,0.00,,,0.00,188,Wunderground v.1.15,2013-01-21 14:59:00,
2013-01-21 09:01:00,-0.4,-6.7,30.47,NW,313,15.0,18.0,74,0.00,,,0.00,190,Wunderground v.1.15,2013-01-21 15:01:00,
2013-01-21 09:02:00,-0.3,-6.6,30.47,NW,323,14.0,18.0,74,0.00,,,0.00,181,Wunderground v.1.15,2013-01-21 15:02:00,
2013-01-21 09:04:00,-0.3,-6.9,30.46,WNW,303,16.0,19.0,73,0.00,,,0.00,190,Wunderground v.1.15,2013-01-21 15:04:00,
2013-01-21 09:05:00,-0.3,-6.9,30.47,NW,319,16.0,19.0,73,0.00,,,0.00,200,Wunderground v.1.15,2013-01-21 15:05:00,
2013-01-21 09:07:00,-0.2,-6.8,30.47,NW,314,15.0,19.0,73,0.00,,,0.00,186,Wunderground v.1.15,2013-01-21 15:07:00,
2013-01-21 09:09:00,-0.1,-6.7,30.46,NW,315,15.0,19.0,73,0.00,,,0.00,206,Wunderground v.1.15,2013-01-21 15:09:00,
2013-01-21 09:10:00,-0.1,-6.7,30.46,WNW,303,19.0,19.0,73,0.00,,,0.00,206,Wunderground v.1.15,2013-01-21 15:10:00,
2013-01-21 09:12:00,-0.1,-6.7,30.46,NW,306,15.0,19.0,73,0.00,,,0.00,156,Wunderground v.1.15,2013-01-21 15:12:00,
2013-01-21 09:13:00,-0.1,-6.7,30.47,WNW,297,12.0,19.0,73,0.00,,,0.00,158,Wunderground v.1.15,2013-01-21 15:13:00,
2013-01-21 09:14:00,-0.1,-6.7,30.47,NW,306,15.0,19.0,73,0.00,,,0.00,163,Wunderground v.1.15,2013-01-21 15:14:00,
2013-01-21 09:15:00,-0.1,-6.7,30.46,NW,319,12.0,19.0,73,0.00,,,0.00,162,Wunderground v.1.15,2013-01-21 15:15:00,
2013-01-21 09:18:00,0.0,-6.6,30.47,NW,322,9.0,19.0,73,0.00,,,0.00,171,Wunderground v.1.15,2013-01-21 15:18:00,
2013-01-21 09:20:00,0.1,-6.2,30.47,NW,312,13.0,14.0,74,0.00,,,0.00,169,Wunderground v.1.15,2013-01-21 15:20:00,
2013-01-21 09:25:00,0.3,-6.3,30.47,NW,313,14.0,15.0,73,0.00,,,0.00,188,Wunderground v.1.15,2013-01-21 15:25:00,
2013-01-21 09:26:00,0.3,-6.3,30.47,NW,309,13.0,15.0,73,0.00,,,0.00,188,Wunderground v.1.15,2013-01-21 15:26:00,
2013-01-21 09:30:00,0.4,-6.2,30.48,NW,313,15.0,15.0,73,0.00,,,0.00,186,Wunderground v.1.15,2013-01-21 15:30:00,
2013-01-21 09:31:00,0.4,-6.2,30.48,NW,306,15.0,15.0,73,0.00,,,0.00,186,Wunderground v.1.15,2013-01-21 15:31:00,
2013-01-21 09:32:00,0.4,-6.2,30.48,NW,311,8.0,15.0,73,0.00,,,0.00,185,Wunderground v.1.15,2013-01-21 15:32:00,
2013-01-21 09:35:00,0.6,-6.0,30.48,NW,306,13.0,15.0,73,0.00,,,0.00,197,Wunderground v.1.15,2013-01-21 15:35:00,
2013-01-21 09:36:00,0.6,-6.0,30.48,NW,309,12.0,15.0,73,0.00,,,0.00,197,Wunderground v.1.15,2013-01-21 15:36:00,
2013-01-21 09:37:00,0.6,-6.0,30.48,NW,322,12.0,16.0,73,0.00,,,0.00,200,Wunderground v.1.15,2013-01-21 15:37:00,
2013-01-21 09:38:00,0.7,-5.9,30.48,NW,309,11.0,16.0,73,0.00,,,0.00,209,Wunderground v.1.15,2013-01-21 15:38:00,
2013-01-21 09:40:00,0.8,-5.8,30.48,NW,317,11.0,14.0,73,0.00,,,0.00,227,Wunderground v.1.15,2013-01-21 15:40:00,
2013-01-21 09:41:00,0.9,-5.5,30.48,NW,324,12.0,14.0,74,0.00,,,0.00,227,Wunderground v.1.15,2013-01-21 15:41:00,
2013-01-21 09:42:00,0.9,-5.5,30.48,NW,319,14.0,14.0,74,0.00,,,0.00,221,Wunderground v.1.15,2013-01-21 15:42:00,
2013-01-21 09:44:00,1.0,-5.4,30.48,NW,320,13.0,16.0,74,0.00,,,0.00,227,Wunderground v.1.15,2013-01-21 15:44:00,
2013-01-21 09:46:00,1.0,-5.6,30.49,NW,309,11.0,16.0,73,0.00,,,0.00,223,Wunderground v.1.15,2013-01-21 15:46:00,
2013-01-21 09:47:00,1.0,-5.6,30.49,WNW,298,14.0,16.0,73,0.00,,,0.00,221,Wunderground v.1.15,2013-01-21 15:47:00,
2013-01-21 09:48:00,1.1,-5.5,30.49,NNW,328,12.0,16.0,73,0.00,,,0.00,223,Wunderground v.1.15,2013-01-21 15:48:00,
2013-01-21 09:49:00,1.1,-5.5,30.49,WNW,300,14.0,16.0,73,0.00,,,0.00,227,Wunderground v.1.15,2013-01-21 15:49:00,
2013-01-21 09:52:00,1.2,-5.4,30.49,WNW,302,13.0,20.0,73,0.00,,,0.00,230,Wunderground v.1.15,2013-01-21 15:52:00,
2013-01-21 09:53:00,1.3,-5.1,30.49,NW,325,18.0,20.0,74,0.00,,,0.00,232,Wunderground v.1.15,2013-01-21 15:53:00,
2013-01-21 09:54:00,1.3,-5.1,30.49,WNW,297,17.0,20.0,74,0.00,,,0.00,230,Wunderground v.1.15,2013-01-21 15:54:00,
2013-01-21 09:56:00,1.3,-5.3,30.49,NW,309,14.0,20.0,73,0.00,,,0.00,232,Wunderground v.1.15,2013-01-21 15:56:00,
2013-01-21 09:57:00,1.3,-5.3,30.49,WNW,301,16.0,20.0,73,0.00,,,0.00,229,Wunderground v.1.15,2013-01-21 15:57:00,
2013-01-21 09:59:00,1.3,-5.3,30.49,NW,312,16.0,20.0,73,0.00,,,0.00,227,Wunderground v.1.15,2013-01-21 15:59:00,
2013-01-21 10:03:00,1.4,-5.3,30.49,NW,313,18.0,18.0,73,0.00,,,0.00,243,Wunderground v.1.15,2013-01-21 16:03:00,
2013-01-21 10:04:00,1.4,-5.3,30.49,NW,309,16.0,19.0,73,0.00,,,0.00,246,Wunderground v.1.15,2013-01-21 16:04:00,
2013-01-21 10:05:00,1.4,-5.3,30.49,NW,319,15.0,19.0,73,0.00,,,0.00,250,Wunderground v.1.15,2013-01-21 16:05:00,
2013-01-21 10:06:00,1.5,-5.2,30.49,NW,311,16.0,19.0,73,0.00,,,0.00,251,Wunderground v.1.15,2013-01-21 16:06:00,
2013-01-21 10:08:00,1.5,-4.9,30.49,NW,323,15.0,19.0,74,0.00,,,0.00,258,Wunderground v.1.15,2013-01-21 16:08:00,
2013-01-21 10:10:00,1.6,-4.8,30.49,NW,317,16.0,16.0,74,0.00,,,0.00,253,Wunderground v.1.15,2013-01-21 16:10:00,
2013-01-21 10:11:00,1.7,-4.7,30.49,NW,306,14.0,16.0,74,0.00,,,0.00,251,Wunderground v.1.15,2013-01-21 16:11:00,
2013-01-21 10:12:00,1.7,-4.7,30.49,NNW,335,12.0,16.0,74,0.00,,,0.00,251,Wunderground v.1.15,2013-01-21 16:12:00,
2013-01-21 10:14:00,1.8,-4.6,30.49,NW,306,14.0,17.0,74,0.00,,,0.00,251,Wunderground v.1.15,2013-01-21 16:14:00,
2013-01-21 10:16:00,1.9,-4.5,30.49,NW,309,16.0,17.0,74,0.00,,,0.00,248,Wunderground v.1.15,2013-01-21 16:16:00,
2013-01-21 10:17:00,1.9,-4.5,30.49,NW,305,16.0,17.0,74,0.00,,,0.00,248,Wunderground v.1.15,2013-01-21 16:17:00,
2013-01-21 10:20:00,1.9,-4.8,30.49,WNW,300,17.0,17.0,73,0.00,,,0.00,251,Wunderground v.1.15,2013-01-21 16:20:00,
2013-01-21 10:21:00,1.9,-4.5,30.48,NW,304,12.0,15.0,74,0.00,,,0.00,260,Wunderground v.1.15,2013-01-21 16:21:00,
2013-01-21 10:22:00,2.0,-4.4,30.48,WNW,300,15.0,15.0,74,0.00,,,0.00,262,Wunderground v.1.15,2013-01-21 16:22:00,
2013-01-21 10:23:00,2.0,-4.4,30.48,NW,312,16.0,18.0,74,0.00,,,0.00,262,Wunderground v.1.15,2013-01-21 16:23:00,
2013-01-21 10:25:00,2.1,-4.3,30.48,NW,323,12.0,18.0,74,0.00,,,0.00,253,Wunderground v.1.15,2013-01-21 16:25:00,
2013-01-21 10:27:00,2.2,-4.2,30.48,NW,321,11.0,18.0,74,0.00,,,0.00,257,Wunderground v.1.15,2013-01-21 16:27:00,
2013-01-21 10:29:00,2.3,-4.1,30.48,NW,323,12.0,18.0,74,0.00,,,0.00,264,Wunderground v.1.15,2013-01-21 16:29:00,
2013-01-21 10:32:00,2.4,-4.0,30.48,NW,315,17.0,17.0,74,0.00,,,0.00,265,Wunderground v.1.15,2013-01-21 16:32:00,
2013-01-21 10:33:00,2.4,-4.0,30.48,NW,321,14.0,17.0,74,0.00,,,0.00,272,Wunderground v.1.15,2013-01-21 16:33:00,
2013-01-21 10:36:00,2.4,-4.0,30.48,WNW,303,14.0,18.0,74,0.00,,,0.00,285,Wunderground v.1.15,2013-01-21 16:36:00,
2013-01-21 10:37:00,2.5,-4.2,30.48,NW,319,11.0,18.0,73,0.00,,,0.00,285,Wunderground v.1.15,2013-01-21 16:37:00,
2013-01-21 10:38:00,2.5,-4.2,30.48,WNW,302,12.0,18.0,73,0.00,,,0.00,290,Wunderground v.1.15,2013-01-21 16:38:00,
2013-01-21 10:39:00,2.6,-3.8,30.48,WNW,299,14.0,18.0,74,0.00,,,0.00,290,Wunderground v.1.15,2013-01-21 16:39:00,
2013-01-21 10:42:00,2.6,-3.8,30.48,NW,306,12.0,18.0,74,0.00,,,0.00,297,Wunderground v.1.15,2013-01-21 16:42:00,
2013-01-21 10:43:00,2.7,-3.7,30.48,NW,311,14.0,18.0,74,0.00,,,0.00,299,Wunderground v.1.15,2013-01-21 16:43:00,
2013-01-21 10:44:00,2.7,-3.7,30.48,NW,308,13.0,18.0,74,0.00,,,0.00,304,Wunderground v.1.15,2013-01-21 16:44:00,
2013-01-21 10:45:00,2.7,-3.7,30.48,NW,321,13.0,18.0,74,0.00,,,0.00,308,Wunderground v.1.15,2013-01-21 16:45:00,
2013-01-21 10:47:00,2.8,-3.6,30.48,WNW,300,9.0,18.0,74,0.00,,,0.00,309,Wunderground v.1.15,2013-01-21 16:47:00,
2013-01-21 10:50:00,3.0,-3.1,30.48,WNW,296,13.0,14.0,75,0.00,,,0.00,320,Wunderground v.1.15,2013-01-21 16:50:00,
2013-01-21 10:51:00,3.0,-3.4,30.48,WNW,302,12.0,14.0,74,0.00,,,0.00,315,Wunderground v.1.15,2013-01-21 16:51:00,
2013-01-21 10:55:00,3.1,-3.3,30.48,NW,326,14.0,15.0,74,0.00,,,0.00,323,Wunderground v.1.15,2013-01-21 16:55:00,
2013-01-21 10:56:00,3.1,-3.3,30.48,NW,323,11.0,15.0,74,0.00,,,0.00,325,Wunderground v.1.15,2013-01-21 16:56:00,
2013-01-21 10:57:00,3.2,-2.9,30.48,NW,305,12.0,15.0,75,0.00,,,0.00,323,Wunderground v.1.15,2013-01-21 16:57:00,
2013-01-21 11:00:00,3.4,-2.7,30.48,WNW,300,15.0,15.0,75,0.00,,,0.00,338,Wunderground v.1.15,2013-01-21 17:00:00,
2013-01-21 11:03:00,3.5,-2.7,30.48,NW,315,13.0,17.0,75,0.00,,,0.00,346,Wunderground v.1.15,2013-01-21 17:03:00,
2013-01-21 11:06:00,3.6,-2.6,30.47,NW,310,16.0,17.0,75,0.00,,,0.00,332,Wunderground v.1.15,2013-01-21 17:06:00,
2013-01-21 11:08:00,3.6,-2.6,30.47,WNW,296,13.0,17.0,75,0.00,,,0.00,330,Wunderground v.1.15,2013-01-21 17:08:00,
2013-01-21 11:09:00,3.7,-2.5,30.47,NW,304,11.0,17.0,75,0.00,,,0.00,330,Wunderground v.1.15,2013-01-21 17:09:00,
2013-01-21 11:11:00,3.7,-2.5,30.47,WNW,289,14.0,15.0,75,0.00,,,0.00,343,Wunderground v.1.15,2013-01-21 17:11:00,
2013-01-21 11:14:00,4.0,-1.9,30.47,NW,304,15.0,18.0,76,0.00,,,0.00,330,Wunderground v.1.15,2013-01-21 17:14:00,
2013-01-21 11:16:00,4.2,-1.7,30.47,WNW,285,12.0,18.0,76,0.00,,,0.00,329,Wunderground v.1.15,2013-01-21 17:16:00,
2013-01-21 11:17:00,4.2,-1.7,30.47,WNW,289,12.0,18.0,76,0.00,,,0.00,329,Wunderground v.1.15,2013-01-21 17:17:00,
2013-01-21 11:20:00,4.3,-1.6,30.47,WNW,302,13.0,13.0,76,0.00,,,0.00,320,Wunderground v.1.15,2013-01-21 17:20:00,
2013-01-21 11:21:00,4.4,-1.5,30.47,WNW,290,14.0,14.0,76,0.00,,,0.00,320,Wunderground v.1.15,2013-01-21 17:21:00,
2013-01-21 11:22:00,4.4,-1.5,30.47,WNW,302,11.0,18.0,76,0.00,,,0.00,322,Wunderground v.1.15,2013-01-21 17:22:00,
2013-01-21 11:25:00,4.5,-1.4,30.47,WNW,296,13.0,18.0,76,0.00,,,0.00,323,Wunderground v.1.15,2013-01-21 17:25:00,
2013-01-21 11:26:00,4.5,-1.4,30.47,WNW,301,11.0,18.0,76,0.00,,,0.00,327,Wunderground v.1.15,2013-01-21 17:26:00,
2013-01-21 11:28:00,4.7,-1.2,30.47,WNW,289,12.0,18.0,76,0.00,,,0.00,330,Wunderground v.1.15,2013-01-21 17:28:00,
2013-01-21 11:31:00,4.7,-1.2,30.47,WNW,292,12.0,16.0,76,0.00,,,0.00,330,Wunderground v.1.15,2013-01-21 17:31:00,
2013-01-21 11:32:00,4.7,-1.5,30.47,NW,308,15.0,16.0,75,0.00,,,0.00,330,Wunderground v.1.15,2013-01-21 17:32:00,
2013-01-21 11:33:00,4.7,-1.5,30.47,NW,317,16.0,16.0,75,0.00,,,0.00,330,Wunderground v.1.15,2013-01-21 17:33:00,
2013-01-21 11:37:00,4.6,-1.9,30.47,WNW,294,16.0,16.0,74,0.00,,,0.00,327,Wunderground v.1.15,2013-01-21 17:37:00,
2013-01-21 11:39:00,4.6,-1.9,30.47,WNW,286,17.0,17.0,74,0.00,,,0.00,329,Wunderground v.1.15,2013-01-21 17:39:00,
2013-01-21 11:42:00,4.9,-1.3,30.46,WNW,302,12.0,14.0,75,0.00,,,0.00,367,Wunderground v.1.15,2013-01-21 17:42:00,
2013-01-21 11:43:00,5.0,-0.9,30.46,WNW,300,14.0,14.0,76,0.00,,,0.00,371,Wunderground v.1.15,2013-01-21 17:43:00,
2013-01-21 11:44:00,5.1,-0.8,30.46,WNW,284,15.0,15.0,76,0.00,,,0.00,357,Wunderground v.1.15,2013-01-21 17:44:00,
2013-01-21 11:45:00,5.1,-0.8,30.46,WNW,293,12.0,15.0,76,0.00,,,0.00,357,Wunderground v.1.15,2013-01-21 17:45:00,
2013-01-21 11:47:00,5.2,-1.0,30.46,NW,304,14.0,17.0,75,0.00,,,0.00,339,Wunderground v.1.15,2013-01-21 17:47:00,
2013-01-21 11:48:00,5.2,-1.0,30.46,WNW,290,15.0,17.0,75,0.00,,,0.00,343,Wunderground v.1.15,2013-01-21 17:48:00,
2013-01-21 11:50:00,5.2,-1.0,30.46,WNW,296,11.0,13.0,75,0.00,,,0.00,362,Wunderground v.1.15,2013-01-21 17:50:00,
2013-01-21 11:55:00,5.3,-0.9,30.46,NW,305,12.0,16.0,75,0.00,,,0.00,350,Wunderground v.1.15,2013-01-21 17:55:00,
2013-01-21 11:56:00,5.3,-0.9,30.46,WNW,298,15.0,16.0,75,0.00,,,0.00,353,Wunderground v.1.15,2013-01-21 17:56:00,
2013-01-21 12:00:00,5.3,-1.2,30.45,WNW,288,13.0,15.0,74,0.00,,,0.00,359,Wunderground v.1.15,2013-01-21 18:00:00,
2013-01-21 12:01:00,5.2,-1.3,30.45,NW,320,12.0,15.0,74,0.00,,,0.00,357,Wunderground v.1.15,2013-01-21 18:01:00,
2013-01-21 12:04:00,5.3,-1.2,30.45,WNW,288,14.0,16.0,74,0.00,,,0.00,369,Wunderground v.1.15,2013-01-21 18:04:00,
2013-01-21 12:05:00,5.4,-0.8,30.45,NW,314,13.0,17.0,75,0.00,,,0.00,383,Wunderground v.1.15,2013-01-21 18:05:00,
2013-01-21 12:06:00,5.5,-0.7,30.45,NW,313,11.0,17.0,75,0.00,,,0.00,411,Wunderground v.1.15,2013-01-21 18:06:00,
2013-01-21 12:08:00,5.6,-0.6,30.45,WNW,297,11.0,17.0,75,0.00,,,0.00,427,Wunderground v.1.15,2013-01-21 18:08:00,
2013-01-21 12:10:00,5.7,-0.8,30.45,WNW,301,10.0,14.0,74,0.00,,,0.00,487,Wunderground v.1.15,2013-01-21 18:10:00,
2013-01-21 12:12:00,5.8,-0.7,30.45,WNW,295,11.0,14.0,74,0.00,,,0.00,487,Wunderground v.1.15,2013-01-21 18:12:00,
2013-01-21 12:13:00,6.0,-0.5,30.45,NW,315,13.0,15.0,74,0.00,,,0.00,475,Wunderground v.1.15,2013-01-21 18:13:00,
2013-01-21 12:16:00,6.1,-0.1,30.45,WNW,292,14.0,15.0,75,0.00,,,0.00,466,Wunderground v.1.15,2013-01-21 18:16:00,
2013-01-21 12:17:00,6.2,0.0,30.44,WNW,298,13.0,15.0,75,0.00,,,0.00,462,Wunderground v.1.15,2013-01-21 18:17:00,
2013-01-21 12:18:00,6.3,0.3,30.44,WNW,294,12.0,15.0,76,0.00,,,0.00,455,Wunderground v.1.15,2013-01-21 18:18:00,
2013-01-21 12:22:00,6.6,0.6,30.44,NW,316,13.0,13.0,76,0.00,,,0.00,475,Wunderground v.1.15,2013-01-21 18:22:00,
2013-01-21 12:23:00,6.6,0.4,30.44,NW,311,11.0,15.0,75,0.00,,,0.00,494,Wunderground v.1.15,2013-01-21 18:23:00,
2013-01-21 12:24:00,6.5,0.3,30.44,WNW,302,11.0,15.0,75,0.00,,,0.00,503,Wunderground v.1.15,2013-01-21 18:24:00,
2013-01-21 12:26:00,6.7,0.7,30.44,NW,313,13.0,17.0,76,0.00,,,0.00,471,Wunderground v.1.15,2013-01-21 18:26:00,
2013-01-21 12:27:00,6.7,0.7,30.44,NW,323,11.0,17.0,76,0.00,,,0.00,471,Wunderground v.1.15,2013-01-21 18:27:00,
2013-01-21 12:28:00,6.8,0.8,30.44,NW,324,14.0,17.0,76,0.00,,,0.00,446,Wunderground v.1.15,2013-01-21 18:28:00,
2013-01-21 12:30:00,6.8,0.8,30.44,NW,313,12.0,13.0,76,0.00,,,0.00,459,Wunderground v.1.15,2013-01-21 18:30:00,
2013-01-21 12:31:00,6.9,0.9,30.44,NW,309,11.0,13.0,76,0.00,,,0.00,457,Wunderground v.1.15,2013-01-21 18:31:00,
2013-01-21 12:33:00,6.9,0.9,30.44,WNW,303,13.0,14.0,76,0.00,,,0.00,462,Wunderground v.1.15,2013-01-21 18:33:00,
2013-01-21 12:34:00,7.0,1.0,30.44,NW,315,12.0,14.0,76,0.00,,,0.00,461,Wunderground v.1.15,2013-01-21 18:34:00,
2013-01-21 12:35:00,7.0,1.3,30.44,NW,311,14.0,14.0,77,0.00,,,0.00,450,Wunderground v.1.15,2013-01-21 18:35:00,
2013-01-21 12:38:00,7.0,1.0,30.44,WNW,302,12.0,14.0,76,0.00,,,0.00,439,Wunderground v.1.15,2013-01-21 18:38:00,
2013-01-21 12:40:00,7.0,0.7,30.44,WNW,294,12.0,13.0,75,0.00,,,0.00,452,Wunderground v.1.15,2013-01-21 18:40:00,
2013-01-21 12:41:00,7.0,0.7,30.43,WNW,292,11.0,14.0,75,0.00,,,0.00,431,Wunderground v.1.15,2013-01-21 18:41:00,
2013-01-21 12:44:00,7.1,1.1,30.43,WNW,296,14.0,23.0,76,0.00,,,0.00,468,Wunderground v.1.15,2013-01-21 18:44:00,
2013-01-21 12:45:00,7.1,1.1,30.43,WNW,284,15.0,23.0,76,0.00,,,0.00,468,Wunderground v.1.15,2013-01-21 18:45:00,
2013-01-21 12:46:00,7.2,1.2,30.43,WNW,285,17.0,23.0,76,0.00,,,0.00,457,Wunderground v.1.15,2013-01-21 18:46:00,
2013-01-21 12:47:00,7.2,1.2,30.43,WNW,298,18.0,23.0,76,0.00,,,0.00,448,Wunderground v.1.15,2013-01-21 18:47:00,
2013-01-21 12:50:00,7.3,1.3,30.43,WNW,297,11.0,14.0,76,0.00,,,0.00,429,Wunderground v.1.15,2013-01-21 18:50:00,
2013-01-21 12:53:00,7.6,1.9,30.43,WNW,298,16.0,16.0,77,0.00,,,0.00,417,Wunderground v.1.15,2013-01-21 18:53:00,
2013-01-21 12:54:00,7.5,1.8,30.43,NW,308,17.0,19.0,77,0.00,,,0.00,429,Wunderground v.1.15,2013-01-21 18:54:00,
2013-01-21 12:56:00,7.5,1.5,30.43,NW,305,14.0,19.0,76,0.00,,,0.00,439,Wunderground v.1.15,2013-01-21 18:56:00,
2013-01-21 13:00:00,7.5,1.5,30.43,WNW,294,15.0,19.0,76,0.00,,,0.00,466,Wunderground v.1.15,2013-01-21 19:00:00,
2013-01-21 13:01:00,7.5,1.2,30.43,NW,323,14.0,16.0,75,0.00,,,0.00,492,Wunderground v.1.15,2013-01-21 19:01:00,
2013-01-21 13:02:00,7.6,1.3,30.43,NW,306,15.0,16.0,75,0.00,,,0.00,522,Wunderground v.1.15,2013-01-21 19:02:00,
2013-01-21 13:03:00,7.6,1.3,30.43,WNW,300,16.0,17.0,75,0.00,,,0.00,547,Wunderground v.1.15,2013-01-21 19:03:00,
2013-01-21 13:05:00,7.7,1.4,30.43,NW,310,15.0,17.0,75,0.00,,,0.00,603,Wunderground v.1.15,2013-01-21 19:05:00,
2013-01-21 13:07:00,7.7,1.4,30.43,WNW,285,14.0,17.0,75,0.00,,,0.00,617,Wunderground v.1.15,2013-01-21 19:07:00,
2013-01-21 13:08:00,7.8,1.5,30.43,WNW,300,14.0,17.0,75,0.00,,,0.00,589,Wunderground v.1.15,2013-01-21 19:08:00,
2013-01-21 13:10:00,8.1,2.1,30.43,West,281,12.0,15.0,76,0.00,,,0.00,580,Wunderground v.1.15,2013-01-21 19:10:00,
2013-01-21 13:12:00,8.7,3.5,30.43,WNW,292,12.0,15.0,79,0.00,,,0.00,540,Wunderground v.1.15,2013-01-21 19:12:00,
2013-01-21 13:13:00,8.7,3.5,30.43,NW,309,15.0,17.0,79,0.00,,,0.00,540,Wunderground v.1.15,2013-01-21 19:13:00,
2013-01-21 13:15:00,9.0,3.5,30.42,NW,308,14.0,17.0,78,0.00,,,0.00,606,Wunderground v.1.15,2013-01-21 19:15:00,
2013-01-21 13:19:00,9.4,4.2,30.43,WNW,303,14.0,19.0,79,0.00,,,0.00,626,Wunderground v.1.15,2013-01-21 19:19:00,
2013-01-21 13:20:00,9.4,3.6,30.42,WNW,296,13.0,14.0,77,0.00,,,0.00,605,Wunderground v.1.15,2013-01-21 19:20:00,
2013-01-21 13:21:00,9.4,3.6,30.43,WNW,301,19.0,19.0,77,0.00,,,0.00,608,Wunderground v.1.15,2013-01-21 19:21:00,
2013-01-21 13:25:00,9.5,4.0,30.42,WNW,284,17.0,19.0,78,0.00,,,0.00,608,Wunderground v.1.15,2013-01-21 19:25:00,
2013-01-21 13:26:00,9.5,4.0,30.42,West,272,14.0,19.0,78,0.00,,,0.00,624,Wunderground v.1.15,2013-01-21 19:26:00,
2013-01-21 13:27:00,9.6,4.1,30.42,WNW,284,10.0,19.0,78,0.00,,,0.00,624,Wunderground v.1.15,2013-01-21 19:27:00,
2013-01-21 13:31:00,9.5,3.7,30.42,WNW,294,18.0,18.0,77,0.00,,,0.00,570,Wunderground v.1.15,2013-01-21 19:31:00,
2013-01-21 13:32:00,9.5,3.7,30.42,WNW,287,17.0,18.0,77,0.00,,,0.00,570,Wunderground v.1.15,2013-01-21 19:32:00,
2013-01-21 13:33:00,9.5,3.7,30.42,WNW,286,13.0,18.0,77,0.00,,,0.00,573,Wunderground v.1.15,2013-01-21 19:33:00,
2013-01-21 13:37:00,9.6,3.8,30.42,WNW,290,17.0,18.0,77,0.00,,,0.00,483,Wunderground v.1.15,2013-01-21 19:37:00,
2013-01-21 13:38:00,9.6,3.8,30.42,WNW,298,14.0,18.0,77,0.00,,,0.00,466,Wunderground v.1.15,2013-01-21 19:38:00,
2013-01-21 13:42:00,9.5,3.5,30.42,WNW,300,14.0,18.0,76,0.00,,,0.00,504,Wunderground v.1.15,2013-01-21 19:42:00,
2013-01-21 13:43:00,9.5,3.5,30.42,WNW,288,15.0,18.0,76,0.00,,,0.00,508,Wunderground v.1.15,2013-01-21 19:43:00,
2013-01-21 13:44:00,9.5,3.5,30.42,WNW,292,14.0,18.0,76,0.00,,,0.00,497,Wunderground v.1.15,2013-01-21 19:44:00,
2013-01-21 13:47:00,9.4,3.1,30.42,WNW,296,13.0,21.0,75,0.00,,,0.00,464,Wunderground v.1.15,2013-01-21 19:47:00,
2013-01-21 13:48:00,9.4,3.1,30.42,WNW,292,14.0,21.0,75,0.00,,,0.00,464,Wunderground v.1.15,2013-01-21 19:48:00,
2013-01-21 13:49:00,9.5,3.2,30.42,WNW,292,13.0,21.0,75,0.00,,,0.00,459,Wunderground v.1.15,2013-01-21 19:49:00,
2013-01-21 13:53:00,9.6,3.6,30.42,WNW,286,16.0,19.0,76,0.00,,,0.00,462,Wunderground v.1.15,2013-01-21 19:53:00,
2013-01-21 13:54:00,9.6,3.6,30.42,WNW,295,15.0,19.0,76,0.00,,,0.00,466,Wunderground v.1.15,2013-01-21 19:54:00,
2013-01-21 13:57:00,9.6,3.3,30.42,WNW,292,12.0,19.0,75,0.00,,,0.00,468,Wunderground v.1.15,2013-01-21 19:57:00,
2013-01-21 13:58:00,9.6,3.0,30.42,WNW,297,13.0,19.0,74,0.00,,,0.00,476,Wunderground v.1.15,2013-01-21 19:58:00,
2013-01-21 13:59:00,9.7,3.4,30.42,WNW,291,13.0,19.0,75,0.00,,,0.00,475,Wunderground v.1.15,2013-01-21 19:59:00,
2013-01-21 14:01:00,9.9,3.8,30.42,West,279,20.0,20.0,76,0.00,,,0.00,464,Wunderground v.1.15,2013-01-21 20:01:00,
2013-01-21 14:03:00,10.1,4.3,30.42,WNW,284,11.0,20.0,77,0.00,,,0.00,485,Wunderground v.1.15,2013-01-21 20:03:00,
2013-01-21 14:05:00,10.3,4.5,30.41,NW,305,13.0,20.0,77,0.00,,,0.00,526,Wunderground v.1.15,2013-01-21 20:05:00,
2013-01-21 14:06:00,10.4,4.3,30.42,WNW,302,18.0,20.0,76,0.00,,,0.00,557,Wunderground v.1.15,2013-01-21 20:06:00,
2013-01-21 14:09:00,10.4,4.0,30.42,WNW,288,12.0,20.0,75,0.00,,,0.00,512,Wunderground v.1.15,2013-01-21 20:09:00,
2013-01-21 14:10:00,10.5,4.1,30.41,WNW,296,14.0,15.0,75,0.00,,,0.00,492,Wunderground v.1.15,2013-01-21 20:10:00,
2013-01-21 14:11:00,10.5,4.1,30.41,WNW,288,14.0,15.0,75,0.00,,,0.00,501,Wunderground v.1.15,2013-01-21 20:11:00,
2013-01-21 14:16:00,10.7,4.6,30.41,WNW,298,15.0,19.0,76,0.00,,,0.00,429,Wunderground v.1.15,2013-01-21 20:16:00,
2013-01-21 14:17:00,10.7,4.6,30.41,WNW,296,14.0,19.0,76,0.00,,,0.00,429,Wunderground v.1.15,2013-01-21 20:17:00,
2013-01-21 14:18:00,10.6,4.2,30.41,West,281,14.0,19.0,75,0.00,,,0.00,380,Wunderground v.1.15,2013-01-21 20:18:00,
2013-01-21 14:21:00,10.4,3.8,30.41,WNW,297,14.0,15.0,74,0.00,,,0.00,353,Wunderground v.1.15,2013-01-21 20:21:00,
2013-01-21 14:23:00,10.4,3.8,30.41,WNW,284,16.0,17.0,74,0.00,,,0.00,343,Wunderground v.1.15,2013-01-21 20:23:00,
2013-01-21 14:24:00,10.3,3.7,30.41,WNW,293,17.0,17.0,74,0.00,,,0.00,359,Wunderground v.1.15,2013-01-21 20:24:00,
2013-01-21 14:26:00,10.4,3.8,30.41,WNW,297,14.0,17.0,74,0.00,,,0.00,362,Wunderground v.1.15,2013-01-21 20:26:00,
2013-01-21 14:29:00,10.4,3.8,30.41,WNW,287,18.0,18.0,74,0.00,,,0.00,376,Wunderground v.1.15,2013-01-21 20:29:00,
2013-01-21 14:30:00,10.5,3.8,30.41,WNW,294,14.0,16.0,74,0.00,,,0.00,385,Wunderground v.1.15,2013-01-21 20:30:00,
2013-01-21 14:34:00,10.4,3.5,30.41,WNW,295,14.0,16.0,73,0.00,,,0.00,397,Wunderground v.1.15,2013-01-21 20:34:00,
2013-01-21 14:35:00,10.5,3.8,30.41,West,275,14.0,16.0,74,0.00,,,0.00,424,Wunderground v.1.15,2013-01-21 20:35:00,
2013-01-21 14:39:00,10.7,4.3,30.40,West,279,15.0,17.0,75,0.00,,,0.00,459,Wunderground v.1.15,2013-01-21 20:39:00,
2013-01-21 14:41:00,10.9,4.8,30.41,WNW,293,15.0,18.0,76,0.00,,,0.00,436,Wunderground v.1.15,2013-01-21 20:41:00,
2013-01-21 14:44:00,10.9,4.2,30.40,WNW,294,15.0,18.0,74,0.00,,,0.00,411,Wunderground v.1.15,2013-01-21 20:44:00,
2013-01-21 14:46:00,10.9,4.2,30.41,WNW,300,15.0,20.0,74,0.00,,,0.00,341,Wunderground v.1.15,2013-01-21 20:46:00,
2013-01-21 14:47:00,10.8,4.1,30.41,WNW,296,13.0,20.0,74,0.00,,,0.00,341,Wunderground v.1.15,2013-01-21 20:47:00,
2013-01-21 14:49:00,10.7,3.4,30.41,WNW,290,18.0,20.0,72,0.00,,,0.00,343,Wunderground v.1.15,2013-01-21 20:49:00,
2013-01-21 14:52:00,10.5,2.9,30.40,WNW,292,15.0,19.0,71,0.00,,,0.00,388,Wunderground v.1.15,2013-01-21 20:52:00,
2013-01-21 14:53:00,10.5,2.9,30.41,WNW,285,13.0,19.0,71,0.00,,,0.00,388,Wunderground v.1.15,2013-01-21 20:53:00,
2013-01-21 14:55:00,10.7,3.7,30.40,WNW,288,15.0,19.0,73,0.00,,,0.00,366,Wunderground v.1.15,2013-01-21 20:55:00,
2013-01-21 14:58:00,10.5,2.9,30.41,WNW,294,18.0,20.0,71,0.00,,,0.00,258,Wunderground v.1.15,2013-01-21 20:58:00,
2013-01-21 14:59:00,10.5,2.9,30.40,WNW,294,14.0,20.0,71,0.00,,,0.00,258,Wunderground v.1.15,2013-01-21 20:59:00,
2013-01-21 15:04:00,10.3,2.8,30.40,WNW,293,14.0,18.0,71,0.00,,,0.00,250,Wunderground v.1.15,2013-01-21 21:04:00,
2013-01-21 15:05:00,10.3,3.4,30.40,WNW,302,15.0,18.0,73,0.00,,,0.00,239,Wunderground v.1.15,2013-01-21 21:05:00,
2013-01-21 15:06:00,10.4,3.5,30.40,WNW,298,13.0,19.0,73,0.00,,,0.00,239,Wunderground v.1.15,2013-01-21 21:06:00,
2013-01-21 15:09:00,10.3,3.1,30.41,NW,304,16.0,19.0,72,0.00,,,0.00,230,Wunderground v.1.15,2013-01-21 21:09:00,
2013-01-21 15:10:00,10.2,2.7,30.41,WNW,298,15.0,15.0,71,0.00,,,0.00,229,Wunderground v.1.15,2013-01-21 21:10:00,
2013-01-21 15:14:00,10.1,2.9,30.41,WNW,300,17.0,20.0,72,0.00,,,0.00,257,Wunderground v.1.15,2013-01-21 21:14:00,
2013-01-21 15:15:00,10.1,2.9,30.41,WNW,295,16.0,20.0,72,0.00,,,0.00,257,Wunderground v.1.15,2013-01-21 21:15:00,
2013-01-21 15:16:00,10.1,2.6,30.41,WNW,298,18.0,20.0,71,0.00,,,0.00,230,Wunderground v.1.15,2013-01-21 21:16:00,
2013-01-21 15:18:00,10.1,2.9,30.41,WNW,294,15.0,20.0,72,0.00,,,0.00,214,Wunderground v.1.15,2013-01-21 21:18:00,
2013-01-21 15:20:00,10.0,2.2,30.41,NW,308,14.0,16.0,70,0.00,,,0.00,190,Wunderground v.1.15,2013-01-21 21:20:00,
2013-01-21 15:21:00,10.0,2.2,30.41,WNW,294,14.0,16.0,70,0.00,,,0.00,204,Wunderground v.1.15,2013-01-21 21:21:00,
2013-01-21 15:22:00,10.0,2.2,30.41,WNW,296,13.0,16.0,70,0.00,,,0.00,207,Wunderground v.1.15,2013-01-21 21:22:00,
2013-01-21 15:26:00,10.1,2.9,30.41,WNW,294,13.0,16.0,72,0.00,,,0.00,214,Wunderground v.1.15,2013-01-21 21:26:00,
2013-01-21 15:28:00,10.1,3.2,30.41,WNW,296,14.0,16.0,73,0.00,,,0.00,204,Wunderground v.1.15,2013-01-21 21:28:00,
2013-01-21 15:29:00,10.2,3.3,30.41,WNW,294,16.0,17.0,73,0.00,,,0.00,197,Wunderground v.1.15,2013-01-21 21:29:00,
2013-01-21 15:31:00,10.2,3.0,30.41,WNW,301,14.0,16.0,72,0.00,,,0.00,185,Wunderground v.1.15,2013-01-21 21:31:00,
2013-01-21 15:32:00,10.1,2.6,30.41,West,280,13.0,17.0,71,0.00,,,0.00,190,Wunderground v.1.15,2013-01-21 21:32:00,
2013-01-21 15:34:00,10.1,2.6,30.41,NW,306,12.0,17.0,71,0.00,,,0.00,192,Wunderground v.1.15,2013-01-21 21:34:00,
2013-01-21 15:36:00,10.1,2.6,30.41,WNW,293,13.0,17.0,71,0.00,,,0.00,190,Wunderground v.1.15,2013-01-21 21:36:00,
2013-01-21 15:38:00,10.2,3.3,30.41,WNW,294,14.0,18.0,73,0.00,,,0.00,174,Wunderground v.1.15,2013-01-21 21:38:00,
2013-01-21 15:39:00,10.1,2.9,30.41,WNW,296,13.0,18.0,72,0.00,,,0.00,158,Wunderground v.1.15,2013-01-21 21:39:00,
2013-01-21 15:41:00,10.0,2.5,30.41,WNW,300,13.0,16.0,71,0.00,,,0.00,148,Wunderground v.1.15,2013-01-21 21:41:00,
2013-01-21 15:44:00,9.9,2.1,30.41,NW,315,14.0,16.0,70,0.00,,,0.00,144,Wunderground v.1.15,2013-01-21 21:44:00,
2013-01-21 15:45:00,9.9,2.1,30.41,NW,307,16.0,17.0,70,0.00,,,0.00,144,Wunderground v.1.15,2013-01-21 21:45:00,
2013-01-21 15:46:00,9.8,2.3,30.41,WNW,300,14.0,18.0,71,0.00,,,0.00,141,Wunderground v.1.15,2013-01-21 21:46:00,
2013-01-21 15:49:00,9.8,2.3,30.41,WNW,289,12.0,18.0,71,0.00,,,0.00,134,Wunderground v.1.15,2013-01-21 21:49:00,
2013-01-21 15:50:00,9.8,2.6,30.41,WNW,288,14.0,16.0,72,0.00,,,0.00,132,Wunderground v.1.15,2013-01-21 21:50:00,
2013-01-21 15:51:00,9.8,2.6,30.41,WNW,303,15.0,16.0,72,0.00,,,0.00,132,Wunderground v.1.15,2013-01-21 21:51:00,
2013-01-21 15:54:00,9.9,2.4,30.41,WNW,286,9.0,16.0,71,0.00,,,0.00,128,Wunderground v.1.15,2013-01-21 21:54:00,
2013-01-21 15:56:00,9.9,2.7,30.41,NW,304,15.0,16.0,72,0.00,,,0.00,127,Wunderground v.1.15,2013-01-21 21:56:00,
2013-01-21 15:57:00,10.0,2.8,30.41,WNW,298,12.0,16.0,72,0.00,,,0.00,127,Wunderground v.1.15,2013-01-21 21:57:00,
2013-01-21 16:00:00,10.1,3.2,30.41,NW,307,14.0,15.0,73,0.00,,,0.00,121,Wunderground v.1.15,2013-01-21 22:00:00,
2013-01-21 16:02:00,10.0,2.8,30.41,WNW,294,13.0,17.0,72,0.00,,,0.00,116,Wunderground v.1.15,2013-01-21 22:02:00,
2013-01-21 16:03:00,10.0,2.5,30.41,WNW,296,13.0,17.0,71,0.00,,,0.00,114,Wunderground v.1.15,2013-01-21 22:03:00,
2013-01-21 16:05:00,9.9,2.1,30.40,NW,309,14.0,18.0,70,0.00,,,0.00,109,Wunderground v.1.15,2013-01-21 22:05:00,
2013-01-21 16:07:00,9.9,2.1,30.41,WNW,295,13.0,18.0,70,0.00,,,0.00,104,Wunderground v.1.15,2013-01-21 22:07:00,
2013-01-21 16:08:00,9.8,2.0,30.40,WNW,298,13.0,18.0,70,0.00,,,0.00,102,Wunderground v.1.15,2013-01-21 22:08:00,
2013-01-21 16:11:00,9.8,2.3,30.40,WNW,292,14.0,14.0,71,0.00,,,0.00,90,Wunderground v.1.15,2013-01-21 22:11:00,
2013-01-21 16:12:00,9.8,2.3,30.40,WNW,296,12.0,15.0,71,0.00,,,0.00,93,Wunderground v.1.15,2013-01-21 22:12:00,
2013-01-21 16:14:00,9.7,2.2,30.41,WNW,293,14.0,16.0,71,0.00,,,0.00,93,Wunderground v.1.15,2013-01-21 22:14:00,
2013-01-21 16:16:00,9.7,2.2,30.41,WNW,288,15.0,17.0,71,0.00,,,0.00,93,Wunderground v.1.15,2013-01-21 22:16:00,
2013-01-21 16:18:00,9.6,2.1,30.41,WNW,292,13.0,17.0,71,0.00,,,0.00,91,Wunderground v.1.15,2013-01-21 22:18:00,
2013-01-21 16:19:00,9.6,2.1,30.41,WNW,302,13.0,17.0,71,0.00,,,0.00,86,Wunderground v.1.15,2013-01-21 22:19:00,
2013-01-21 16:21:00,9.7,2.5,30.41,NW,305,14.0,16.0,72,0.00,,,0.00,86,Wunderground v.1.15,2013-01-21 22:21:00,
2013-01-21 16:24:00,9.6,2.1,30.41,WNW,294,14.0,17.0,71,0.00,,,0.00,70,Wunderground v.1.15,2013-01-21 22:24:00,
2013-01-21 16:25:00,9.6,2.1,30.41,WNW,287,13.0,17.0,71,0.00,,,0.00,70,Wunderground v.1.15,2013-01-21 22:25:00,
2013-01-21 16:27:00,9.6,2.1,30.40,WNW,298,13.0,17.0,71,0.00,,,0.00,65,Wunderground v.1.15,2013-01-21 22:27:00,
2013-01-21 16:30:00,9.6,2.1,30.41,WNW,294,10.0,14.0,71,0.00,,,0.00,49,Wunderground v.1.15,2013-01-21 22:30:00,
2013-01-21 16:31:00,9.6,2.1,30.41,WNW,294,10.0,14.0,71,0.00,,,0.00,46,Wunderground v.1.15,2013-01-21 22:31:00,
2013-01-21 16:33:00,9.5,2.0,30.40,WNW,290,14.0,16.0,71,0.00,,,0.00,40,Wunderground v.1.15,2013-01-21 22:33:00,
2013-01-21 16:37:00,9.2,1.4,30.40,NW,304,14.0,16.0,70,0.00,,,0.00,33,Wunderground v.1.15,2013-01-21 22:37:00,
2013-01-21 16:38:00,9.2,1.4,30.41,WNW,298,13.0,16.0,70,0.00,,,0.00,33,Wunderground v.1.15,2013-01-21 22:38:00,
2013-01-21 16:40:00,9.1,1.6,30.41,WNW,297,12.0,14.0,71,0.00,,,0.00,32,Wunderground v.1.15,2013-01-21 22:40:00,
2013-01-21 16:41:00,9.1,1.6,30.41,WNW,298,10.0,14.0,71,0.00,,,0.00,30,Wunderground v.1.15,2013-01-21 22:41:00,
2013-01-21 16:43:00,9.1,1.9,30.41,WNW,294,12.0,14.0,72,0.00,,,0.00,28,Wunderground v.1.15,2013-01-21 22:43:00,
2013-01-21 16:44:00,9.1,1.9,30.41,WNW,298,14.0,14.0,72,0.00,,,0.00,28,Wunderground v.1.15,2013-01-21 22:44:00,
2013-01-21 16:46:00,9.1,1.9,30.41,NW,310,11.0,14.0,72,0.00,,,0.00,26,Wunderground v.1.15,2013-01-21 22:46:00,
2013-01-21 16:47:00,9.1,1.9,30.40,WNW,300,13.0,14.0,72,0.00,,,0.00,26,Wunderground v.1.15,2013-01-21 22:47:00,
2013-01-21 16:49:00,9.0,1.8,30.41,WNW,300,9.0,14.0,72,0.00,,,0.00,30,Wunderground v.1.15,2013-01-21 22:49:00,
2013-01-21 16:52:00,9.0,1.8,30.40,WNW,296,8.0,14.0,72,0.00,,,0.00,32,Wunderground v.1.15,2013-01-21 22:52:00,
2013-01-21 16:53:00,9.0,1.8,30.40,WNW,300,11.0,14.0,72,0.00,,,0.00,32,Wunderground v.1.15,2013-01-21 22:53:00,
2013-01-21 16:55:00,9.1,1.9,30.40,WNW,300,12.0,14.0,72,0.00,,,0.00,28,Wunderground v.1.15,2013-01-21 22:55:00,
2013-01-21 16:58:00,9.1,1.9,30.40,WNW,302,9.0,14.0,72,0.00,,,0.00,23,Wunderground v.1.15,2013-01-21 22:58:00,
2013-01-21 16:59:00,9.1,1.9,30.40,WNW,296,10.0,14.0,72,0.00,,,0.00,19,Wunderground v.1.15,2013-01-21 22:59:00,
2013-01-21 17:01:00,9.1,1.9,30.40,WNW,292,9.0,11.0,72,0.00,,,0.00,18,Wunderground v.1.15,2013-01-21 23:01:00,
2013-01-21 17:05:00,9.1,2.2,30.40,WNW,302,12.0,13.0,73,0.00,,,0.00,12,Wunderground v.1.15,2013-01-21 23:05:00,
2013-01-21 17:06:00,9.1,2.2,30.40,WNW,290,12.0,13.0,73,0.00,,,0.00,11,Wunderground v.1.15,2013-01-21 23:06:00,
2013-01-21 17:10:00,9.2,2.3,30.40,WNW,295,12.0,13.0,73,0.00,,,0.00,7,Wunderground v.1.15,2013-01-21 23:10:00,
2013-01-21 17:11:00,9.2,2.0,30.40,WNW,299,13.0,13.0,72,0.00,,,0.00,7,Wunderground v.1.15,2013-01-21 23:11:00,
2013-01-21 17:15:00,9.1,1.9,30.40,WNW,296,10.0,13.0,72,0.00,,,0.00,5,Wunderground v.1.15,2013-01-21 23:15:00,
2013-01-21 17:18:00,9.0,1.8,30.40,WNW,300,12.0,13.0,72,0.00,,,0.00,0,Wunderground v.1.15,2013-01-21 23:18:00,
2013-01-21 17:21:00,8.8,1.9,30.40,NW,304,11.0,11.0,73,0.00,,,0.00,0,Wunderground v.1.15,2013-01-21 23:21:00,
2013-01-21 17:24:00,8.7,1.5,30.40,WNW,303,11.0,13.0,72,0.00,,,0.00,0,Wunderground v.1.15,2013-01-21 23:24:00,
2013-01-21 17:25:00,8.6,1.4,30.40,WNW,300,9.0,13.0,72,0.00,,,0.00,0,Wunderground v.1.15,2013-01-21 23:25:00,
2013-01-21 17:26:00,8.5,1.6,30.40,WNW,294,9.0,13.0,73,0.00,,,0.00,0,Wunderground v.1.15,2013-01-21 23:26:00,
2013-01-21 17:27:00,8.5,1.6,30.40,NW,304,10.0,13.0,73,0.00,,,0.00,0,Wunderground v.1.15,2013-01-21 23:27:00,
2013-01-21 17:30:00,8.4,1.5,30.40,WNW,298,12.0,12.0,73,0.00,,,0.00,0,Wunderground v.1.15,2013-01-21 23:30:00,
2013-01-21 17:33:00,8.1,1.2,30.40,NW,308,12.0,12.0,73,0.00,,,0.00,0,Wunderground v.1.15,2013-01-21 23:33:00,
2013-01-21 17:34:00,8.1,1.2,30.40,WNW,302,9.0,12.0,73,0.00,,,0.00,0,Wunderground v.1.15,2013-01-21 23:34:00,
2013-01-21 17:35:00,8.1,1.2,30.40,WNW,298,9.0,12.0,73,0.00,,,0.00,0,Wunderground v.1.15,2013-01-21 23:35:00,
2013-01-21 17:36:00,8.0,1.1,30.40,NW,307,10.0,12.0,73,0.00,,,0.00,0,Wunderground v.1.15,2013-01-21 23:36:00,
2013-01-21 17:39:00,7.9,1.0,30.40,WNW,288,9.0,12.0,73,0.00,,,0.00,0,Wunderground v.1.15,2013-01-21 23:39:00,
2013-01-21 17:41:00,7.8,0.6,30.41,WNW,300,9.0,12.0,72,0.00,,,0.00,0,Wunderground v.1.15,2013-01-21 23:41:00,
2013-01-21 17:42:00,7.8,0.6,30.41,WNW,300,9.0,12.0,72,0.00,,,0.00,0,Wunderground v.1.15,2013-01-21 23:42:00,
2013-01-21 17:45:00,7.6,0.5,30.41,NW,308,8.0,12.0,72,0.00,,,0.00,0,Wunderground v.1.15,2013-01-21 23:45:00,
2013-01-21 17:46:00,7.6,0.5,30.41,NW,304,10.0,12.0,72,0.00,,,0.00,0,Wunderground v.1.15,2013-01-21 23:46:00,
2013-01-21 17:47:00,7.5,0.4,30.41,NW,306,9.0,12.0,72,0.00,,,0.00,0,Wunderground v.1.15,2013-01-21 23:47:00,
2013-01-21 17:50:00,7.4,0.6,30.41,WNW,298,9.0,9.0,73,0.00,,,0.00,0,Wunderground v.1.15,2013-01-21 23:50:00,
2013-01-21 17:52:00,7.3,0.5,30.41,WNW,298,11.0,11.0,73,0.00,,,0.00,0,Wunderground v.1.15,2013-01-21 23:52:00,
2013-01-21 17:53:00,7.3,0.5,30.41,WNW,298,8.0,11.0,73,0.00,,,0.00,0,Wunderground v.1.15,2013-01-21 23:53:00,
2013-01-21 17:58:00,7.1,0.6,30.41,WNW,302,7.0,11.0,74,0.00,,,0.00,0,Wunderground v.1.15,2013-01-21 23:58:00,
2013-01-21 17:59:00,7.1,0.6,30.41,WNW,302,7.0,11.0,74,0.00,,,0.00,0,Wunderground v.1.15,2013-01-21 23:59:00,
2013-01-21 18:05:00,6.9,0.4,30.41,NW,306,8.0,9.0,74,0.00,,,0.00,0,Wunderground v.1.15,2013-01-22 00:05:00,
2013-01-21 18:06:00,6.9,0.4,30.41,NW,306,6.0,9.0,74,0.00,,,0.00,0,Wunderground v.1.15,2013-01-22 00:06:00,
2013-01-21 18:11:00,6.7,0.2,30.41,WNW,301,5.0,8.0,74,0.00,,,0.00,0,Wunderground v.1.15,2013-01-22 00:11:00,
2013-01-21 18:12:00,6.7,0.5,30.41,WNW,298,7.0,8.0,75,0.00,,,0.00,0,Wunderground v.1.15,2013-01-22 00:12:00,
2013-01-21 18:13:00,6.6,0.4,30.41,NW,304,7.0,8.0,75,0.00,,,0.00,0,Wunderground v.1.15,2013-01-22 00:13:00,
2013-01-21 18:14:00,6.6,0.4,30.41,WNW,299,7.0,8.0,75,0.00,,,0.00,0,Wunderground v.1.15,2013-01-22 00:14:00,
2013-01-21 18:16:00,6.5,0.3,30.41,WNW,298,6.0,8.0,75,0.00,,,0.00,0,Wunderground v.1.15,2013-01-22 00:16:00,
2013-01-21 18:17:00,6.5,0.3,30.41,WNW,300,7.0,8.0,75,0.00,,,0.00,0,Wunderground v.1.15,2013-01-22 00:17:00,
2013-01-21 18:19:00,6.5,0.3,30.41,WNW,300,5.0,8.0,75,0.00,,,0.00,0,Wunderground v.1.15,2013-01-22 00:19:00,
2013-01-21 18:21:00,6.4,0.2,30.41,WNW,300,5.0,7.0,75,0.00,,,0.00,0,Wunderground v.1.15,2013-01-22 00:21:00,
2013-01-21 18:22:00,6.4,0.2,30.41,WNW,300,7.0,7.0,75,0.00,,,0.00,0,Wunderground v.1.15,2013-01-22 00:22:00,
2013-01-21 18:23:00,6.4,0.2,30.41,WNW,300,6.0,7.0,75,0.00,,,0.00,0,Wunderground v.1.15,2013-01-22 00:23:00,
2013-01-21 18:24:00,6.3,0.1,30.41,NW,305,6.0,7.0,75,0.00,,,0.00,0,Wunderground v.1.15,2013-01-22 00:24:00,
2013-01-21 18:27:00,6.3,0.3,30.41,NW,306,6.0,7.0,76,0.00,,,0.00,0,Wunderground v.1.15,2013-01-22 00:27:00,
2013-01-21 18:28:00,6.2,0.3,30.41,NW,306,5.0,7.0,76,0.00,,,0.00,0,Wunderground v.1.15,2013-01-22 00:28:00,
2013-01-21 18:29:00,6.2,0.3,30.41,NW,306,6.0,7.0,76,0.00,,,0.00,0,Wunderground v.1.15,2013-01-22 00:29:00,
2013-01-21 18:30:00,6.2,0.3,30.41,NW,305,4.0,6.0,76,0.00,,,0.00,0,Wunderground v.1.15,2013-01-22 00:30:00,
2013-01-21 18:32:00,6.1,0.2,30.41,NW,304,5.0,6.0,76,0.00,,,0.00,0,Wunderground v.1.15,2013-01-22 00:32:00,
2013-01-21 18:34:00,6.1,0.2,30.41,WNW,300,4.0,6.0,76,0.00,,,0.00,0,Wunderground v.1.15,2013-01-22 00:34:00,
2013-01-21 18:35:00,6.0,0.1,30.41,WNW,298,5.0,6.0,76,0.00,,,0.00,0,Wunderground v.1.15,2013-01-22 00:35:00,
2013-01-21 18:37:00,6.0,0.3,30.41,WNW,295,6.0,6.0,77,0.00,,,0.00,0,Wunderground v.1.15,2013-01-22 00:37:00,
2013-01-21 18:40:00,6.0,0.3,30.41,WNW,298,5.0,5.0,77,0.00,,,0.00,0,Wunderground v.1.15,2013-01-22 00:40:00,
2013-01-21 18:42:00,6.1,0.4,30.41,WNW,298,5.0,5.0,77,0.00,,,0.00,0,Wunderground v.1.15,2013-01-22 00:42:00,
2013-01-21 18:45:00,6.1,0.4,30.41,NW,308,6.0,7.0,77,0.00,,,0.00,0,Wunderground v.1.15,2013-01-22 00:45:00,
2013-01-21 18:47:00,6.1,0.4,30.41,NW,310,8.0,8.0,77,0.00,,,0.00,0,Wunderground v.1.15,2013-01-22 00:47:00,
2013-01-21 18:48:00,6.1,0.4,30.41,NW,304,7.0,8.0,77,0.00,,,0.00,0,Wunderground v.1.15,2013-01-22 00:48:00,
2013-01-21 18:50:00,6.2,0.5,30.41,NW,312,8.0,8.0,77,0.00,,,0.00,0,Wunderground v.1.15,2013-01-22 00:50:00,
2013-01-21 18:51:00,6.2,0.5,30.41,NW,308,7.0,8.0,77,0.00,,,0.00,0,Wunderground v.1.15,2013-01-22 00:51:00,
2013-01-21 18:53:00,6.2,0.5,30.41,NW,311,8.0,8.0,77,0.00,,,0.00,0,Wunderground v.1.15,2013-01-22 00:53:00,
2013-01-21 18:54:00,6.2,0.5,30.41,NW,314,7.0,9.0,77,0.00,,,0.00,0,Wunderground v.1.15,2013-01-22 00:54:00,
2013-01-21 18:55:00,6.2,0.5,30.41,NW,309,7.0,9.0,77,0.00,,,0.00,0,Wunderground v.1.15,2013-01-22 00:55:00,
2013-01-21 18:58:00,6.2,0.5,30.41,NW,309,7.0,9.0,77,0.00,,,0.00,0,Wunderground v.1.15,2013-01-22 00:58:00,
2013-01-21 18:59:00,6.3,0.6,30.41,NW,304,6.0,9.0,77,0.00,,,0.00,0,Wunderground v.1.15,2013-01-22 00:59:00,
2013-01-21 19:00:00,6.3,0.6,30.41,WNW,302,6.0,9.0,77,0.00,,,0.00,0,Wunderground v.1.15,2013-01-22 01:00:00,
2013-01-21 19:02:00,6.2,0.5,30.41,WNW,300,6.0,7.0,77,0.00,,,0.00,0,Wunderground v.1.15,2013-01-22 01:02:00,
2013-01-21 19:04:00,6.2,0.5,30.41,WNW,302,6.0,7.0,77,0.00,,,0.00,0,Wunderground v.1.15,2013-01-22 01:04:00,
2013-01-21 19:05:00,6.2,0.5,30.41,NW,304,5.0,7.0,77,0.00,,,0.00,0,Wunderground v.1.15,2013-01-22 01:05:00,
2013-01-21 19:07:00,6.2,0.5,30.41,WNW,296,5.0,7.0,77,0.00,,,0.00,0,Wunderground v.1.15,2013-01-22 01:07:00,
2013-01-21 19:09:00,6.1,0.4,30.41,WNW,303,6.0,7.0,77,0.00,,,0.00,0,Wunderground v.1.15,2013-01-22 01:09:00,
2013-01-21 19:10:00,6.1,0.4,30.41,WNW,298,6.0,6.0,77,0.00,,,0.00,0,Wunderground v.1.15,2013-01-22 01:10:00,
2013-01-21 19:12:00,6.0,0.3,30.41,WNW,298,7.0,9.0,77,0.00,,,0.00,0,Wunderground v.1.15,2013-01-22 01:12:00,
2013-01-21 19:13:00,6.0,0.3,30.41,WNW,296,6.0,9.0,77,0.00,,,0.00,0,Wunderground v.1.15,2013-01-22 01:13:00,
2013-01-21 19:14:00,6.0,0.3,30.41,WNW,298,7.0,9.0,77,0.00,,,0.00,0,Wunderground v.1.15,2013-01-22 01:14:00,
2013-01-21 19:17:00,6.0,0.3,30.41,WNW,302,8.0,9.0,77,0.00,,,0.00,0,Wunderground v.1.15,2013-01-22 01:17:00,
2013-01-21 19:19:00,5.9,0.2,30.41,WNW,297,7.0,9.0,77,0.00,,,0.00,0,Wunderground v.1.15,2013-01-22 01:19:00,
2013-01-21 19:20:00,5.9,0.2,30.41,WNW,297,7.0,7.0,77,0.00,,,0.00,0,Wunderground v.1.15,2013-01-22 01:20:00,
2013-01-21 19:22:00,5.9,0.2,30.41,WNW,297,7.0,7.0,77,0.00,,,0.00,0,Wunderground v.1.15,2013-01-22 01:22:00,
2013-01-21 19:25:00,5.8,0.1,30.41,WNW,298,7.0,7.0,77,0.00,,,0.00,0,Wunderground v.1.15,2013-01-22 01:25:00,
2013-01-21 19:26:00,5.8,0.1,30.41,WNW,300,6.0,7.0,77,0.00,,,0.00,0,Wunderground v.1.15,2013-01-22 01:26:00,
2013-01-21 19:30:00,5.7,0.0,30.41,WNW,303,7.0,8.0,77,0.00,,,0.00,0,Wunderground v.1.15,2013-01-22 01:30:00,
2013-01-21 19:31:00,5.6,-0.1,30.41,WNW,298,8.0,8.0,77,0.00,,,0.00,0,Wunderground v.1.15,2013-01-22 01:31:00,
2013-01-21 19:32:00,5.6,-0.1,30.41,WNW,298,7.0,8.0,77,0.00,,,0.00,0,Wunderground v.1.15,2013-01-22 01:32:00,
2013-01-21 19:35:00,5.5,-0.1,30.41,WNW,302,8.0,9.0,77,0.00,,,0.00,0,Wunderground v.1.15,2013-01-22 01:35:00,
2013-01-21 19:37:00,5.5,-0.1,30.42,WNW,298,7.0,9.0,77,0.00,,,0.00,0,Wunderground v.1.15,2013-01-22 01:37:00,
2013-01-21 19:38:00,5.5,-0.1,30.42,WNW,303,6.0,9.0,77,0.00,,,0.00,0,Wunderground v.1.15,2013-01-22 01:38:00,
2013-01-21 19:41:00,5.4,-0.2,30.42,NW,305,6.0,8.0,77,0.00,,,0.00,0,Wunderground v.1.15,2013-01-22 01:41:00,
2013-01-21 19:42:00,5.4,-0.2,30.42,NW,305,7.0,8.0,77,0.00,,,0.00,0,Wunderground v.1.15,2013-01-22 01:42:00,
2013-01-21 19:46:00,5.3,-0.3,30.42,NW,304,6.0,8.0,77,0.00,,,0.00,0,Wunderground v.1.15,2013-01-22 01:46:00,
2013-01-21 19:48:00,5.3,-0.3,30.42,NW,306,7.0,8.0,77,0.00,,,0.00,0,Wunderground v.1.15,2013-01-22 01:48:00,
2013-01-21 19:49:00,5.3,-0.3,30.42,NW,304,5.0,8.0,77,0.00,,,0.00,0,Wunderground v.1.15,2013-01-22 01:49:00,
2013-01-21 19:52:00,5.2,-0.4,30.42,NW,311,5.0,7.0,77,0.00,,,0.00,0,Wunderground v.1.15,2013-01-22 01:52:00,
2013-01-21 19:53:00,5.2,-0.4,30.42,NW,313,6.0,7.0,77,0.00,,,0.00,0,Wunderground v.1.15,2013-01-22 01:53:00,
2013-01-21 19:55:00,5.1,-0.5,30.42,NW,311,5.0,7.0,77,0.00,,,0.00,0,Wunderground v.1.15,2013-01-22 01:55:00,
2013-01-21 19:56:00,5.1,-0.5,30.42,NW,311,4.0,7.0,77,0.00,,,0.00,0,Wunderground v.1.15,2013-01-22 01:56:00,
2013-01-21 19:58:00,5.0,-0.4,30.42,NW,309,4.0,7.0,78,0.00,,,0.00,0,Wunderground v.1.15,2013-01-22 01:58:00,
2013-01-21 19:59:00,5.0,-0.6,30.42,NW,308,5.0,7.0,77,0.00,,,0.00,0,Wunderground v.1.15,2013-01-22 01:59:00,
2013-01-21 20:01:00,4.9,-0.7,30.42,WNW,303,4.0,5.0,77,0.00,,,0.00,0,Wunderground v.1.15,2013-01-22 02:01:00,
2013-01-21 20:03:00,4.7,-0.7,30.42,WNW,301,5.0,5.0,78,0.00,,,0.00,0,Wunderground v.1.15,2013-01-22 02:03:00,
2013-01-21 20:04:00,4.7,-0.7,30.42,NW,306,5.0,5.0,78,0.00,,,0.00,0,Wunderground v.1.15,2013-01-22 02:04:00,
2013-01-21 20:05:00,4.6,-0.8,30.42,NW,310,4.0,5.0,78,0.00,,,0.00,0,Wunderground v.1.15,2013-01-22 02:05:00,
2013-01-21 20:08:00,4.5,-0.8,30.42,NW,311,3.0,5.0,78,0.00,,,0.00,0,Wunderground v.1.15,2013-01-22 02:08:00,
2013-01-21 20:09:00,4.4,-0.9,30.42,NW,311,4.0,5.0,78,0.00,,,0.00,0,Wunderground v.1.15,2013-01-22 02:09:00,
2013-01-21 20:10:00,4.2,-1.1,30.42,NW,311,4.0,4.0,78,0.00,,,0.00,0,Wunderground v.1.15,2013-01-22 02:10:00,
2013-01-21 20:11:00,4.2,-1.1,30.42,NW,311,4.0,4.0,78,0.00,,,0.00,0,Wunderground v.1.15,2013-01-22 02:11:00,
2013-01-21 20:13:00,4.0,-1.3,30.42,NW,311,3.0,4.0,78,0.00,,,0.00,0,Wunderground v.1.15,2013-01-22 02:13:00,
2013-01-21 20:16:00,3.9,-1.2,30.42,NW,313,3.0,4.0,79,0.00,,,0.00,0,Wunderground v.1.15,2013-01-22 02:16:00,
2013-01-21 20:19:00,3.7,-1.4,30.42,NW,311,3.0,5.0,79,0.00,,,0.00,0,Wunderground v.1.15,2013-01-22 02:19:00,
2013-01-21 20:20:00,3.7,-1.4,30.42,NW,311,3.0,4.0,79,0.00,,,0.00,0,Wunderground v.1.15,2013-01-22 02:20:00,
2013-01-21 20:21:00,3.7,-1.4,30.42,NW,311,4.0,4.0,79,0.00,,,0.00,0,Wunderground v.1.15,2013-01-22 02:21:00,
2013-01-21 20:25:00,3.6,-1.5,30.42,NW,310,2.0,4.0,79,0.00,,,0.00,0,Wunderground v.1.15,2013-01-22 02:25:00,
2013-01-21 20:27:00,3.6,-1.5,30.42,NW,308,2.0,4.0,79,0.00,,,0.00,0,Wunderground v.1.15,2013-01-22 02:27:00,
2013-01-21 20:31:00,3.6,-1.2,30.42,NW,304,2.0,3.0,80,0.00,,,0.00,0,Wunderground v.1.15,2013-01-22 02:31:00,
2013-01-21 20:33:00,3.6,-1.2,30.42,NW,304,2.0,3.0,80,0.00,,,0.00,0,Wunderground v.1.15,2013-01-22 02:33:00,
2013-01-21 20:36:00,3.5,-1.3,30.42,NW,304,2.0,3.0,80,0.00,,,0.00,0,Wunderground v.1.15,2013-01-22 02:36:00,
2013-01-21 20:37:00,3.4,-1.4,30.42,NW,304,2.0,3.0,80,0.00,,,0.00,0,Wunderground v.1.15,2013-01-22 02:37:00,
2013-01-21 20:39:00,3.3,-1.5,30.42,NW,304,1.0,3.0,80,0.00,,,0.00,0,Wunderground v.1.15,2013-01-22 02:39:00,
2013-01-21 20:40:00,3.2,-1.6,30.42,NW,304,2.0,2.0,80,0.00,,,0.00,0,Wunderground v.1.15,2013-01-22 02:40:00,
2013-01-21 20:42:00,3.2,-1.6,30.42,NW,304,2.0,2.0,80,0.00,,,0.00,0,Wunderground v.1.15,2013-01-22 02:42:00,
2013-01-21 20:43:00,3.2,-1.6,30.42,NW,304,1.0,2.0,80,0.00,,,0.00,0,Wunderground v.1.15,2013-01-22 02:43:00,
2013-01-21 20:44:00,3.2,-1.6,30.42,NW,304,3.0,3.0,80,0.00,,,0.00,0,Wunderground v.1.15,2013-01-22 02:44:00,
2013-01-21 20:45:00,3.2,-1.3,30.42,NW,304,2.0,3.0,81,0.00,,,0.00,0,Wunderground v.1.15,2013-01-22 02:45:00,
2013-01-21 20:48:00,3.2,-1.3,30.42,NW,304,3.0,3.0,81,0.00,,,0.00,0,Wunderground v.1.15,2013-01-22 02:48:00,
2013-01-21 20:50:00,3.2,-1.3,30.42,NW,304,3.0,3.0,81,0.00,,,0.00,0,Wunderground v.1.15,2013-01-22 02:50:00,
2013-01-21 20:51:00,3.3,-1.2,30.42,WNW,297,2.0,3.0,81,0.00,,,0.00,0,Wunderground v.1.15,2013-01-22 02:51:00,
2013-01-21 20:54:00,3.3,-1.2,30.42,WNW,294,2.0,3.0,81,0.00,,,0.00,0,Wunderground v.1.15,2013-01-22 02:54:00,
2013-01-21 20:55:00,3.3,-1.2,30.42,WNW,294,2.0,3.0,81,0.00,,,0.00,0,Wunderground v.1.15,2013-01-22 02:55:00,
2013-01-21 20:56:00,3.4,-1.1,30.42,WNW,294,2.0,3.0,81,0.00,,,0.00,0,Wunderground v.1.15,2013-01-22 02:56:00,
2013-01-21 20:59:00,3.3,-1.2,30.42,WNW,294,3.0,3.0,81,0.00,,,0.00,0,Wunderground v.1.15,2013-01-22 02:59:00,
2013-01-21 21:01:00,3.4,-1.1,30.42,WNW,293,3.0,3.0,81,0.00,,,0.00,0,Wunderground v.1.15,2013-01-22 03:01:00,
2013-01-21 21:02:00,3.3,-1.2,30.42,WNW,292,3.0,3.0,81,0.00,,,0.00,0,Wunderground v.1.15,2013-01-22 03:02:00,
2013-01-21 21:05:00,3.3,-1.2,30.42,WNW,289,3.0,4.0,81,0.00,,,0.00,0,Wunderground v.1.15,2013-01-22 03:05:00,
2013-01-21 21:06:00,3.3,-1.2,30.42,WNW,289,3.0,4.0,81,0.00,,,0.00,0,Wunderground v.1.15,2013-01-22 03:06:00,
2013-01-21 21:07:00,3.3,-1.2,30.42,WNW,289,3.0,4.0,81,0.00,,,0.00,0,Wunderground v.1.15,2013-01-22 03:07:00,
2013-01-21 21:09:00,3.3,-1.2,30.42,WNW,289,2.0,4.0,81,0.00,,,0.00,0,Wunderground v.1.15,2013-01-22 03:09:00,
2013-01-21 21:12:00,3.2,-1.3,30.42,WNW,289,2.0,3.0,81,0.00,,,0.00,0,Wunderground v.1.15,2013-01-22 03:12:00,
2013-01-21 21:13:00,3.1,-1.4,30.42,WNW,289,3.0,3.0,81,0.00,,,0.00,0,Wunderground v.1.15,2013-01-22 03:13:00,
2013-01-21 21:14:00,3.1,-1.4,30.42,WNW,289,3.0,3.0,81,0.00,,,0.00,0,Wunderground v.1.15,2013-01-22 03:14:00,
2013-01-21 21:17:00,3.1,-1.4,30.42,WNW,289,2.0,3.0,81,0.00,,,0.00,0,Wunderground v.1.15,2013-01-22 03:17:00,
2013-01-21 21:18:00,3.1,-1.4,30.42,WNW,289,2.0,3.0,81,0.00,,,0.00,0,Wunderground v.1.15,2013-01-22 03:18:00,
2013-01-21 21:20:00,3.1,-1.4,30.42,WNW,289,2.0,3.0,81,0.00,,,0.00,0,Wunderground v.1.15,2013-01-22 03:20:00,
2013-01-21 21:23:00,3.1,-1.4,30.42,WNW,301,2.0,3.0,81,0.00,,,0.00,0,Wunderground v.1.15,2013-01-22 03:23:00,
2013-01-21 21:25:00,3.0,-1.5,30.42,WNW,302,0.0,3.0,81,0.00,,,0.00,0,Wunderground v.1.15,2013-01-22 03:25:00,
2013-01-21 21:26:00,3.0,-1.5,30.42,WNW,303,2.0,3.0,81,0.00,,,0.00,0,Wunderground v.1.15,2013-01-22 03:26:00,
2013-01-21 21:28:00,2.8,-2.0,30.42,NW,307,3.0,3.0,80,0.00,,,0.00,0,Wunderground v.1.15,2013-01-22 03:28:00,
2013-01-21 21:31:00,2.4,-2.4,30.42,NW,307,3.0,3.0,80,0.00,,,0.00,0,Wunderground v.1.15,2013-01-22 03:31:00,
2013-01-21 21:32:00,2.4,-2.4,30.42,NW,307,3.0,3.0,80,0.00,,,0.00,0,Wunderground v.1.15,2013-01-22 03:32:00,
2013-01-21 21:33:00,2.2,-2.6,30.42,NW,307,4.0,4.0,80,0.00,,,0.00,0,Wunderground v.1.15,2013-01-22 03:33:00,
2013-01-21 21:34:00,2.2,-2.6,30.42,NW,307,4.0,4.0,80,0.00,,,0.00,0,Wunderground v.1.15,2013-01-22 03:34:00,
2013-01-21 21:38:00,2.1,-2.4,30.42,NW,307,2.0,4.0,81,0.00,,,0.00,0,Wunderground v.1.15,2013-01-22 03:38:00,
2013-01-21 21:39:00,2.2,-2.3,30.42,NW,307,2.0,4.0,81,0.00,,,0.00,0,Wunderground v.1.15,2013-01-22 03:39:00,
2013-01-21 21:40:00,2.1,-2.4,30.42,NW,307,2.0,3.0,81,0.00,,,0.00,0,Wunderground v.1.15,2013-01-22 03:40:00,
2013-01-21 21:41:00,2.1,-2.4,30.42,NW,307,0.0,3.0,81,0.00,,,0.00,0,Wunderground v.1.15,2013-01-22 03:41:00,
2013-01-21 21:43:00,2.0,-2.5,30.42,NW,307,0.0,3.0,81,0.00,,,0.00,0,Wunderground v.1.15,2013-01-22 03:43:00,
2013-01-21 21:44:00,1.9,-2.6,30.42,NW,307,0.0,3.0,81,0.00,,,0.00,0,Wunderground v.1.15,2013-01-22 03:44:00,
2013-01-21 21:45:00,1.9,-2.6,30.42,NW,307,0.0,3.0,81,0.00,,,0.00,0,Wunderground v.1.15,2013-01-22 03:45:00,
2013-01-21 21:48:00,1.8,-2.7,30.42,NW,307,2.0,3.0,81,0.00,,,0.00,0,Wunderground v.1.15,2013-01-22 03:48:00,
2013-01-21 21:50:00,1.9,-2.6,30.42,NW,307,1.0,1.0,81,0.00,,,0.00,0,Wunderground v.1.15,2013-01-22 03:50:00,
2013-01-21 21:51:00,1.9,-2.6,30.42,NW,307,1.0,2.0,81,0.00,,,0.00,0,Wunderground v.1.15,2013-01-22 03:51:00,
2013-01-21 21:52:00,2.0,-2.2,30.42,NW,307,1.0,2.0,82,0.00,,,0.00,0,Wunderground v.1.15,2013-01-22 03:52:00,
2013-01-21 21:55:00,2.1,-2.1,30.42,WNW,294,3.0,3.0,82,0.00,,,0.00,0,Wunderground v.1.15,2013-01-22 03:55:00,
2013-01-21 21:56:00,2.3,-1.9,30.42,WNW,289,3.0,3.0,82,0.00,,,0.00,0,Wunderground v.1.15,2013-01-22 03:56:00,
2013-01-21 21:58:00,2.4,-1.8,30.42,WNW,286,3.0,4.0,82,0.00,,,0.00,0,Wunderground v.1.15,2013-01-22 03:58:00,
2013-01-21 22:00:00,2.6,-1.6,30.42,WNW,286,3.0,3.0,82,0.00,,,0.00,0,Wunderground v.1.15,2013-01-22 04:00:00,
2013-01-21 22:01:00,2.7,-1.5,30.42,WNW,286,3.0,3.0,82,0.00,,,0.00,0,Wunderground v.1.15,2013-01-22 04:01:00,
2013-01-21 22:02:00,2.8,-1.4,30.43,WNW,286,2.0,3.0,82,0.00,,,0.00,0,Wunderground v.1.15,2013-01-22 04:02:00,
2013-01-21 22:04:00,2.8,-1.4,30.42,WNW,286,3.0,3.0,82,0.00,,,0.00,0,Wunderground v.1.15,2013-01-22 04:04:00,
2013-01-21 22:07:00,2.9,-1.3,30.42,WNW,286,3.0,3.0,82,0.00,,,0.00,0,Wunderground v.1.15,2013-01-22 04:07:00,
2013-01-21 22:08:00,2.9,-1.3,30.42,WNW,286,4.0,4.0,82,0.00,,,0.00,0,Wunderground v.1.15,2013-01-22 04:08:00,
2013-01-21 22:09:00,2.9,-1.3,30.42,WNW,286,2.0,4.0,82,0.00,,,0.00,0,Wunderground v.1.15,2013-01-22 04:09:00,
2013-01-21 22:12:00,3.0,-1.3,30.42,WNW,286,4.0,4.0,82,0.00,,,0.00,0,Wunderground v.1.15,2013-01-22 04:12:00,
2013-01-21 22:14:00,3.0,-1.3,30.42,WNW,286,3.0,4.0,82,0.00,,,0.00,0,Wunderground v.1.15,2013-01-22 04:14:00,
2013-01-21 22:15:00,3.1,-1.2,30.42,WNW,286,5.0,5.0,82,0.00,,,0.00,0,Wunderground v.1.15,2013-01-22 04:15:00,
2013-01-21 22:18:00,3.2,-1.1,30.42,WNW,288,5.0,6.0,82,0.00,,,0.00,0,Wunderground v.1.15,2013-01-22 04:18:00,
2013-01-21 22:19:00,3.2,-1.1,30.42,WNW,287,5.0,6.0,82,0.00,,,0.00,0,Wunderground v.1.15,2013-01-22 04:19:00,
2013-01-21 22:20:00,3.3,-1.0,30.42,WNW,286,5.0,5.0,82,0.00,,,0.00,0,Wunderground v.1.15,2013-01-22 04:20:00,
2013-01-21 22:24:00,3.4,-0.9,30.42,WNW,290,4.0,5.0,82,0.00,,,0.00,0,Wunderground v.1.15,2013-01-22 04:24:00,
2013-01-21 22:27:00,3.5,-0.8,30.42,WNW,298,5.0,5.0,82,0.00,,,0.00,0,Wunderground v.1.15,2013-01-22 04:27:00,
2013-01-21 22:30:00,3.6,-0.9,30.42,WNW,301,4.0,4.0,81,0.00,,,0.00,0,Wunderground v.1.15,2013-01-22 04:30:00,
2013-01-21 22:31:00,3.6,-0.9,30.42,WNW,303,2.0,4.0,81,0.00,,,0.00,0,Wunderground v.1.15,2013-01-22 04:31:00,
2013-01-21 22:32:00,3.6,-0.9,30.42,WNW,303,2.0,4.0,81,0.00,,,0.00,0,Wunderground v.1.15,2013-01-22 04:32:00,
2013-01-21 22:33:00,3.5,-1.0,30.42,NW,306,4.0,4.0,81,0.00,,,0.00,0,Wunderground v.1.15,2013-01-22 04:33:00,
2013-01-21 22:36:00,3.3,-1.2,30.42,NW,306,3.0,4.0,81,0.00,,,0.00,0,Wunderground v.1.15,2013-01-22 04:36:00,
2013-01-21 22:37:00,3.2,-1.3,30.42,NW,304,3.0,4.0,81,0.00,,,0.00,0,Wunderground v.1.15,2013-01-22 04:37:00,
2013-01-21 22:38:00,3.2,-1.3,30.42,WNW,300,3.0,4.0,81,0.00,,,0.00,0,Wunderground v.1.15,2013-01-22 04:38:00,
2013-01-21 22:39:00,3.1,-1.4,30.42,WNW,295,4.0,4.0,81,0.00,,,0.00,0,Wunderground v.1.15,2013-01-22 04:39:00,
2013-01-21 22:41:00,3.1,-1.4,30.42,WNW,291,5.0,5.0,81,0.00,,,0.00,0,Wunderground v.1.15,2013-01-22 04:41:00,
2013-01-21 22:43:00,3.2,-1.3,30.42,WNW,291,5.0,5.0,81,0.00,,,0.00,0,Wunderground v.1.15,2013-01-22 04:43:00,
2013-01-21 22:45:00,3.3,-1.2,30.42,WNW,298,5.0,5.0,81,0.00,,,0.00,0,Wunderground v.1.15,2013-01-22 04:45:00,
2013-01-21 22:47:00,3.4,-0.9,30.42,WNW,300,5.0,5.0,82,0.00,,,0.00,0,Wunderground v.1.15,2013-01-22 04:47:00,
2013-01-21 22:48:00,3.4,-0.9,30.42,WNW,300,3.0,5.0,82,0.00,,,0.00,0,Wunderground v.1.15,2013-01-22 04:48:00,
2013-01-21 22:50:00,3.5,-1.0,30.42,WNW,300,4.0,4.0,81,0.00,,,0.00,0,Wunderground v.1.15,2013-01-22 04:50:00,
2013-01-21 22:51:00,3.5,-1.0,30.42,WNW,300,4.0,4.0,81,0.00,,,0.00,0,Wunderground v.1.15,2013-01-22 04:51:00,
2013-01-21 22:53:00,3.5,-1.0,30.42,WNW,300,4.0,5.0,81,0.00,,,0.00,0,Wunderground v.1.15,2013-01-22 04:53:00,
2013-01-21 22:55:00,3.6,-0.9,30.42,NW,304,3.0,5.0,81,0.00,,,0.00,0,Wunderground v.1.15,2013-01-22 04:55:00,
2013-01-21 22:56:00,3.6,-0.9,30.42,NW,306,3.0,5.0,81,0.00,,,0.00,0,Wunderground v.1.15,2013-01-22 04:56:00,
2013-01-21 22:58:00,3.5,-1.0,30.42,NW,307,0.0,5.0,81,0.00,,,0.00,0,Wunderground v.1.15,2013-01-22 04:58:00,
2013-01-21 22:59:00,3.4,-1.1,30.42,NW,307,0.0,5.0,81,0.00,,,0.00,0,Wunderground v.1.15,2013-01-22 04:59:00,
2013-01-21 23:00:00,3.3,-1.2,30.42,NW,307,0.0,3.0,81,0.00,,,0.00,0,Wunderground v.1.15,2013-01-22 05:00:00,
2013-01-21 23:02:00,3.0,-1.8,30.42,NW,307,3.0,3.0,80,0.00,,,0.00,0,Wunderground v.1.15,2013-01-22 05:02:00,
2013-01-21 23:03:00,3.0,-1.8,30.42,NW,307,2.0,3.0,80,0.00,,,0.00,0,Wunderground v.1.15,2013-01-22 05:03:00,
2013-01-21 23:08:00,2.9,-1.6,30.42,NW,309,3.0,4.0,81,0.00,,,0.00,0,Wunderground v.1.15,2013-01-22 05:08:00,
2013-01-21 23:09:00,2.9,-1.6,30.42,NW,309,3.0,4.0,81,0.00,,,0.00,0,Wunderground v.1.15,2013-01-22 05:09:00,
2013-01-21 23:12:00,2.9,-1.3,30.42,NW,309,3.0,4.0,82,0.00,,,0.00,0,Wunderground v.1.15,2013-01-22 05:12:00,
2013-01-21 23:13:00,2.9,-1.6,30.42,NW,309,3.0,4.0,81,0.00,,,0.00,0,Wunderground v.1.15,2013-01-22 05:13:00,
2013-01-21 23:15:00,3.0,-1.3,30.42,WNW,303,3.0,4.0,82,0.00,,,0.00,0,Wunderground v.1.15,2013-01-22 05:15:00,
2013-01-21 23:18:00,3.1,-1.2,30.42,WNW,303,3.0,4.0,82,0.00,,,0.00,0,Wunderground v.1.15,2013-01-22 05:18:00,
2013-01-21 23:19:00,3.1,-1.2,30.42,WNW,303,3.0,4.0,82,0.00,,,0.00,0,Wunderground v.1.15,2013-01-22 05:19:00,
2013-01-21 23:21:00,3.1,-1.2,30.42,WNW,303,3.0,3.0,82,0.00,,,0.00,0,Wunderground v.1.15,2013-01-22 05:21:00,
2013-01-21 23:24:00,3.2,-1.1,30.42,NW,306,0.0,3.0,82,0.00,,,0.00,0,Wunderground v.1.15,2013-01-22 05:24:00,
2013-01-21 23:26:00,3.2,-1.1,30.42,NW,306,0.0,3.0,82,0.00,,,0.00,0,Wunderground v.1.15,2013-01-22 05:26:00,
2013-01-21 23:29:00,3.0,-1.3,30.42,NW,306,0.0,3.0,82,0.00,,,0.00,0,Wunderground v.1.15,2013-01-22 05:29:00,
2013-01-21 23:31:00,3.0,-1.3,30.42,NW,306,2.0,3.0,82,0.00,,,0.00,0,Wunderground v.1.15,2013-01-22 05:31:00,
2013-01-21 23:32:00,3.0,-1.3,30.42,NW,306,1.0,3.0,82,0.00,,,0.00,0,Wunderground v.1.15,2013-01-22 05:32:00,
2013-01-21 23:34:00,3.1,-1.2,30.42,NW,306,1.0,3.0,82,0.00,,,0.00,0,Wunderground v.1.15,2013-01-22 05:34:00,
2013-01-21 23:37:00,3.2,-1.1,30.42,NW,306,2.0,3.0,82,0.00,,,0.00,0,Wunderground v.1.15,2013-01-22 05:37:00,
2013-01-21 23:38:00,3.2,-1.1,30.42,NW,306,2.0,3.0,82,0.00,,,0.00,0,Wunderground v.1.15,2013-01-22 05:38:00,
2013-01-21 23:40:00,3.3,-1.0,30.42,NW,308,3.0,3.0,82,0.00,,,0.00,0,Wunderground v.1.15,2013-01-22 05:40:00,
2013-01-21 23:41:00,3.3,-1.0,30.42,NW,309,3.0,4.0,82,0.00,,,0.00,0,Wunderground v.1.15,2013-01-22 05:41:00,
2013-01-21 23:44:00,3.4,-0.9,30.42,NW,309,2.0,4.0,82,0.00,,,0.00,0,Wunderground v.1.15,2013-01-22 05:44:00,
2013-01-21 23:45:00,3.4,-0.9,30.42,NW,309,2.0,4.0,82,0.00,,,0.00,0,Wunderground v.1.15,2013-01-22 05:45:00,
2013-01-21 23:47:00,3.4,-0.9,30.42,NW,309,2.0,4.0,82,0.00,,,0.00,0,Wunderground v.1.15,2013-01-22 05:47:00,
2013-01-21 23:50:00,3.3,-1.2,30.42,NW,310,3.0,3.0,81,0.00,,,0.00,0,Wunderground v.1.15,2013-01-22 05:50:00,
2013-01-21 23:51:00,3.3,-1.2,30.42,NW,310,1.0,3.0,81,0.00,,,0.00,0,Wunderground v.1.15,2013-01-22 05:51:00,
2013-01-21 23:52:00,3.3,-1.2,30.41,NW,310,1.0,3.0,81,0.00,,,0.00,0,Wunderground v.1.15,2013-01-22 05:52:00,
2013-01-21 23:56:00,3.2,-1.3,30.42,NW,311,1.0,3.0,81,0.00,,,0.00,0,Wunderground v.1.15,2013-01-22 05:56:00,
2013-01-21 23:57:00,3.2,-1.3,30.42,NW,311,0.0,3.0,81,0.00,,,0.00,0,Wunderground v.1.15,2013-01-22 05:57:00,